Time,TemperatureF,DewpointF,PressureIn,WindDirection,WindDirectionDegrees,WindSpeedMPH,WindSpeedGustMPH,Humidity,HourlyPrecipIn,Conditions,Clouds,dailyrainin,SoftwareType,DateUTC
2013-05-12 00:01:00,61.1,60.5,29.82,SW,235,0.0,0.0,98,0.00,,,0.19,Wunderground v.1.15,2013-05-12 04:01:00,
2013-05-12 00:02:00,61.1,60.5,29.82,SW,235,0.0,0.0,98,0.00,,,0.00,Wunderground v.1.15,2013-05-12 04:02:00,
2013-05-12 00:03:00,61.1,60.5,29.82,SW,235,0.0,0.0,98,0.00,,,0.00,Wunderground v.1.15,2013-05-12 04:03:00,
2013-05-12 00:07:00,61.1,60.5,29.82,SW,235,0.0,0.0,98,0.00,,,0.00,Wunderground v.1.15,2013-05-12 04:07:00,
2013-05-12 00:08:00,61.1,60.5,29.82,SW,235,0.0,0.0,98,0.00,,,0.00,Wunderground v.1.15,2013-05-12 04:08:00,
2013-05-12 00:09:00,61.1,60.5,29.82,SW,235,0.0,0.0,98,0.00,,,0.00,Wunderground v.1.15,2013-05-12 04:09:00,
2013-05-12 00:12:00,61.1,60.5,29.82,SW,235,0.0,0.0,98,0.00,,,0.00,Wunderground v.1.15,2013-05-12 04:12:00,
2013-05-12 00:13:00,61.1,60.5,29.82,SW,235,0.0,0.0,98,0.00,,,0.00,Wunderground v.1.15,2013-05-12 04:13:00,
2013-05-12 00:16:00,61.1,60.5,29.82,SW,235,0.0,0.0,98,0.00,,,0.00,Wunderground v.1.15,2013-05-12 04:16:00,
2013-05-12 00:17:00,61.1,60.5,29.82,SW,235,0.0,0.0,98,0.00,,,0.00,Wunderground v.1.15,2013-05-12 04:17:00,
2013-05-12 00:18:00,61.1,60.5,29.83,SW,235,0.0,0.0,98,0.00,,,0.00,Wunderground v.1.15,2013-05-12 04:18:00,
2013-05-12 00:19:00,61.1,60.5,29.82,SW,233,0.0,0.0,98,0.00,,,0.00,Wunderground v.1.15,2013-05-12 04:19:00,
2013-05-12 00:22:00,61.1,60.5,29.83,SW,232,0.0,0.0,98,0.00,,,0.00,Wunderground v.1.15,2013-05-12 04:22:00,
2013-05-12 00:24:00,61.1,60.5,29.83,SW,232,0.0,0.0,98,0.00,,,0.00,Wunderground v.1.15,2013-05-12 04:24:00,
2013-05-12 00:25:00,61.1,60.5,29.83,SW,232,0.0,0.0,98,0.00,,,0.00,Wunderground v.1.15,2013-05-12 04:25:00,
2013-05-12 00:30:00,61.1,60.5,29.83,SW,236,2.0,2.0,98,0.00,,,0.00,Wunderground v.1.15,2013-05-12 04:30:00,
2013-05-12 00:32:00,61.0,60.4,29.83,SW,233,1.0,2.0,98,0.00,,,0.00,Wunderground v.1.15,2013-05-12 04:32:00,
2013-05-12 00:33:00,61.1,60.5,29.83,SW,222,2.0,2.0,98,0.00,,,0.00,Wunderground v.1.15,2013-05-12 04:33:00,
2013-05-12 00:34:00,61.1,60.5,29.83,SW,222,0.0,2.0,98,0.00,,,0.00,Wunderground v.1.15,2013-05-12 04:34:00,
2013-05-12 00:35:00,61.1,60.5,29.83,SW,222,0.0,2.0,98,0.00,,,0.00,Wunderground v.1.15,2013-05-12 04:35:00,
2013-05-12 00:37:00,61.1,60.5,29.83,WSW,255,1.0,2.0,98,0.00,,,0.00,Wunderground v.1.15,2013-05-12 04:37:00,
2013-05-12 00:38:00,61.1,60.5,29.83,SW,221,2.0,2.0,98,0.00,,,0.00,Wunderground v.1.15,2013-05-12 04:38:00,
2013-05-12 00:41:00,61.1,60.5,29.83,WSW,239,1.0,1.0,98,0.00,,,0.00,Wunderground v.1.15,2013-05-12 04:41:00,
2013-05-12 00:42:00,61.1,60.5,29.83,WSW,239,1.0,1.0,98,0.00,,,0.00,Wunderground v.1.15,2013-05-12 04:42:00,
2013-05-12 00:43:00,61.1,60.5,29.83,SW,236,0.0,1.0,98,0.00,,,0.00,Wunderground v.1.15,2013-05-12 04:43:00,
2013-05-12 00:45:00,61.1,60.5,29.83,WSW,237,3.0,3.0,98,0.00,,,0.00,Wunderground v.1.15,2013-05-12 04:45:00,
2013-05-12 00:47:00,61.1,60.5,29.83,SW,219,1.0,3.0,98,0.00,,,0.00,Wunderground v.1.15,2013-05-12 04:47:00,
2013-05-12 00:48:00,61.0,60.4,29.83,SW,218,2.0,3.0,98,0.00,,,0.00,Wunderground v.1.15,2013-05-12 04:48:00,
2013-05-12 00:49:00,61.1,60.5,29.83,SW,225,4.0,4.0,98,0.00,,,0.00,Wunderground v.1.15,2013-05-12 04:49:00,
2013-05-12 00:50:00,61.1,60.5,29.83,SW,232,1.0,2.0,98,0.00,,,0.00,Wunderground v.1.15,2013-05-12 04:50:00,
2013-05-12 00:51:00,61.1,60.5,29.83,SW,235,1.0,2.0,98,0.00,,,0.00,Wunderground v.1.15,2013-05-12 04:51:00,
2013-05-12 00:52:00,61.1,60.5,29.83,SW,231,2.0,2.0,98,0.00,,,0.00,Wunderground v.1.15,2013-05-12 04:52:00,
2013-05-12 00:53:00,61.1,60.5,29.83,WSW,245,1.0,2.0,98,0.00,,,0.00,Wunderground v.1.15,2013-05-12 04:53:00,
2013-05-12 00:56:00,61.1,60.5,29.83,SW,228,2.0,3.0,98,0.00,,,0.00,Wunderground v.1.15,2013-05-12 04:56:00,
2013-05-12 00:57:00,61.1,60.5,29.83,WSW,245,1.0,3.0,98,0.00,,,0.00,Wunderground v.1.15,2013-05-12 04:57:00,
2013-05-12 00:58:00,61.1,60.5,29.83,SW,219,1.0,3.0,98,0.00,,,0.00,Wunderground v.1.15,2013-05-12 04:58:00,
2013-05-12 00:59:00,61.1,60.5,29.83,WSW,247,2.0,3.0,98,0.00,,,0.00,Wunderground v.1.15,2013-05-12 04:59:00,
2013-05-12 01:02:00,61.1,60.5,29.82,SW,224,1.0,2.0,98,0.00,,,0.00,Wunderground v.1.15,2013-05-12 05:02:00,
2013-05-12 01:04:00,61.1,60.5,29.82,SW,229,0.0,2.0,98,0.00,,,0.00,Wunderground v.1.15,2013-05-12 05:04:00,
2013-05-12 01:07:00,61.1,60.5,29.82,WSW,248,2.0,2.0,98,0.00,,,0.00,Wunderground v.1.15,2013-05-12 05:07:00,
2013-05-12 01:09:00,61.2,60.6,29.82,SW,225,0.0,2.0,98,0.00,,,0.00,Wunderground v.1.15,2013-05-12 05:09:00,
2013-05-12 01:10:00,61.2,60.6,29.82,SW,225,1.0,1.0,98,0.00,,,0.00,Wunderground v.1.15,2013-05-12 05:10:00,
2013-05-12 01:14:00,61.2,60.6,29.82,WSW,238,3.0,3.0,98,0.00,,,0.00,Wunderground v.1.15,2013-05-12 05:14:00,
2013-05-12 01:15:00,61.2,60.6,29.83,SW,225,1.0,3.0,98,0.00,,,0.00,Wunderground v.1.15,2013-05-12 05:15:00,
2013-05-12 01:16:00,61.2,60.6,29.83,SW,232,2.0,3.0,98,0.00,,,0.00,Wunderground v.1.15,2013-05-12 05:16:00,
2013-05-12 01:17:00,61.2,60.6,29.83,WSW,243,0.0,3.0,98,0.00,,,0.00,Wunderground v.1.15,2013-05-12 05:17:00,
2013-05-12 01:20:00,61.2,60.6,29.83,SW,218,0.0,1.0,98,0.00,,,0.00,Wunderground v.1.15,2013-05-12 05:20:00,
2013-05-12 01:21:00,61.3,60.7,29.82,SW,218,0.0,1.0,98,0.00,,,0.00,Wunderground v.1.15,2013-05-12 05:21:00,
2013-05-12 01:23:00,61.3,60.4,29.82,WSW,255,0.0,1.0,97,0.00,,,0.00,Wunderground v.1.15,2013-05-12 05:23:00,
2013-05-12 01:26:00,61.3,60.4,29.82,SW,235,0.0,1.0,97,0.00,,,0.00,Wunderground v.1.15,2013-05-12 05:26:00,
2013-05-12 01:31:00,61.3,60.4,29.82,WNW,286,0.0,0.0,97,0.00,,,0.01,Wunderground v.1.15,2013-05-12 05:31:00,
2013-05-12 01:33:00,61.3,60.4,29.82,WNW,286,0.0,0.0,97,0.00,,,0.01,Wunderground v.1.15,2013-05-12 05:33:00,
2013-05-12 01:34:00,61.3,60.4,29.82,WNW,287,0.0,0.0,97,0.00,,,0.01,Wunderground v.1.15,2013-05-12 05:34:00,
2013-05-12 01:35:00,61.3,60.4,29.82,WNW,287,0.0,0.0,97,0.00,,,0.01,Wunderground v.1.15,2013-05-12 05:35:00,
2013-05-12 01:39:00,61.3,60.4,29.82,WSW,258,0.0,0.0,97,0.07,,,0.02,Wunderground v.1.15,2013-05-12 05:39:00,
2013-05-12 01:41:00,61.3,60.4,29.82,West,259,0.0,0.0,97,0.07,,,0.02,Wunderground v.1.15,2013-05-12 05:41:00,
2013-05-12 01:42:00,61.2,60.3,29.82,WSW,258,0.0,0.0,97,0.07,,,0.02,Wunderground v.1.15,2013-05-12 05:42:00,
2013-05-12 01:44:00,61.2,60.3,29.82,West,259,0.0,0.0,97,0.07,,,0.02,Wunderground v.1.15,2013-05-12 05:44:00,
2013-05-12 01:45:00,61.3,60.4,29.82,WSW,258,0.0,0.0,97,0.07,,,0.02,Wunderground v.1.15,2013-05-12 05:45:00,
2013-05-12 01:46:00,61.3,60.4,29.82,WSW,258,0.0,0.0,97,0.07,,,0.02,Wunderground v.1.15,2013-05-12 05:46:00,
2013-05-12 01:48:00,61.2,60.3,29.82,West,259,0.0,0.0,97,0.06,,,0.02,Wunderground v.1.15,2013-05-12 05:48:00,
2013-05-12 01:49:00,61.2,60.3,29.82,WSW,258,0.0,0.0,97,0.05,,,0.02,Wunderground v.1.15,2013-05-12 05:49:00,
2013-05-12 01:50:00,61.2,60.3,29.82,West,259,0.0,0.0,97,0.05,,,0.02,Wunderground v.1.15,2013-05-12 05:50:00,
2013-05-12 01:51:00,61.2,60.3,29.82,West,259,0.0,0.0,97,0.05,,,0.02,Wunderground v.1.15,2013-05-12 05:51:00,
2013-05-12 01:55:00,61.2,60.3,29.82,WSW,258,0.0,0.0,97,0.00,,,0.02,Wunderground v.1.15,2013-05-12 05:55:00,
2013-05-12 01:58:00,61.2,60.3,29.82,West,259,0.0,0.0,97,0.00,,,0.02,Wunderground v.1.15,2013-05-12 05:58:00,
2013-05-12 01:59:00,61.2,60.3,29.82,WSW,258,0.0,0.0,97,0.00,,,0.02,Wunderground v.1.15,2013-05-12 05:59:00,
2013-05-12 02:00:00,61.2,60.3,29.82,WSW,258,0.0,0.0,97,0.00,,,0.02,Wunderground v.1.15,2013-05-12 06:00:00,
2013-05-12 02:01:00,61.2,60.3,29.82,West,259,0.0,0.0,97,0.00,,,0.02,Wunderground v.1.15,2013-05-12 06:01:00,
2013-05-12 02:03:00,61.1,60.2,29.82,WSW,258,0.0,0.0,97,0.00,,,0.02,Wunderground v.1.15,2013-05-12 06:03:00,
2013-05-12 02:05:00,61.2,60.3,29.82,West,259,0.0,0.0,97,0.00,,,0.02,Wunderground v.1.15,2013-05-12 06:05:00,
2013-05-12 02:06:00,61.1,60.2,29.82,West,259,0.0,0.0,97,0.00,,,0.02,Wunderground v.1.15,2013-05-12 06:06:00,
2013-05-12 02:08:00,61.1,60.2,29.82,WSW,258,0.0,0.0,97,0.00,,,0.02,Wunderground v.1.15,2013-05-12 06:08:00,
2013-05-12 02:10:00,61.1,60.2,29.82,West,259,0.0,0.0,97,0.00,,,0.02,Wunderground v.1.15,2013-05-12 06:10:00,
2013-05-12 02:11:00,61.1,60.2,29.82,WSW,258,0.0,0.0,97,0.00,,,0.02,Wunderground v.1.15,2013-05-12 06:11:00,
2013-05-12 02:13:00,61.1,60.2,29.82,West,259,0.0,0.0,97,0.00,,,0.02,Wunderground v.1.15,2013-05-12 06:13:00,
2013-05-12 02:15:00,61.1,60.2,29.82,WSW,258,0.0,0.0,97,0.00,,,0.02,Wunderground v.1.15,2013-05-12 06:15:00,
2013-05-12 02:16:00,61.1,60.2,29.82,WSW,258,0.0,0.0,97,0.00,,,0.02,Wunderground v.1.15,2013-05-12 06:16:00,
2013-05-12 02:17:00,61.1,60.2,29.82,WSW,258,0.0,0.0,97,0.00,,,0.02,Wunderground v.1.15,2013-05-12 06:17:00,
2013-05-12 02:19:00,61.0,60.1,29.82,WSW,258,0.0,0.0,97,0.00,,,0.02,Wunderground v.1.15,2013-05-12 06:19:00,
2013-05-12 02:20:00,61.0,60.1,29.82,WSW,258,0.0,0.0,97,0.00,,,0.02,Wunderground v.1.15,2013-05-12 06:20:00,
2013-05-12 02:22:00,61.0,60.1,29.82,West,259,0.0,0.0,97,0.00,,,0.02,Wunderground v.1.15,2013-05-12 06:22:00,
2013-05-12 02:24:00,61.0,60.1,29.82,WSW,258,0.0,0.0,97,0.00,,,0.02,Wunderground v.1.15,2013-05-12 06:24:00,
2013-05-12 02:25:00,61.0,60.1,29.82,West,259,0.0,0.0,97,0.00,,,0.02,Wunderground v.1.15,2013-05-12 06:25:00,
2013-05-12 02:26:00,61.0,60.1,29.82,WSW,258,0.0,0.0,97,0.00,,,0.02,Wunderground v.1.15,2013-05-12 06:26:00,
2013-05-12 02:27:00,61.0,60.1,29.82,WSW,258,0.0,0.0,97,0.00,,,0.02,Wunderground v.1.15,2013-05-12 06:27:00,
2013-05-12 02:30:00,61.0,60.1,29.82,WSW,258,0.0,0.0,97,0.00,,,0.02,Wunderground v.1.15,2013-05-12 06:30:00,
2013-05-12 02:31:00,61.0,60.1,29.82,West,259,0.0,0.0,97,0.00,,,0.02,Wunderground v.1.15,2013-05-12 06:31:00,
2013-05-12 02:32:00,60.9,60.0,29.82,West,259,0.0,0.0,97,0.00,,,0.02,Wunderground v.1.15,2013-05-12 06:32:00,
2013-05-12 02:33:00,60.9,60.0,29.82,WSW,258,0.0,0.0,97,0.00,,,0.02,Wunderground v.1.15,2013-05-12 06:33:00,
2013-05-12 02:35:00,60.9,60.0,29.82,SW,221,0.0,0.0,97,0.00,,,0.02,Wunderground v.1.15,2013-05-12 06:35:00,
2013-05-12 02:36:00,60.8,59.9,29.82,SW,219,0.0,0.0,97,0.00,,,0.02,Wunderground v.1.15,2013-05-12 06:36:00,
2013-05-12 02:37:00,60.7,59.8,29.82,West,267,0.0,0.0,97,0.00,,,0.02,Wunderground v.1.15,2013-05-12 06:37:00,
2013-05-12 02:38:00,60.6,59.5,29.82,SW,221,0.0,0.0,96,0.00,,,0.02,Wunderground v.1.15,2013-05-12 06:38:00,
2013-05-12 02:40:00,60.5,59.4,29.82,WSW,238,1.0,1.0,96,0.00,,,0.02,Wunderground v.1.15,2013-05-12 06:40:00,
2013-05-12 02:41:00,60.5,59.4,29.82,SW,222,0.0,1.0,96,0.00,,,0.02,Wunderground v.1.15,2013-05-12 06:41:00,
2013-05-12 02:42:00,60.4,59.3,29.82,SSW,203,1.0,1.0,96,0.00,,,0.02,Wunderground v.1.15,2013-05-12 06:42:00,
2013-05-12 02:43:00,60.3,59.2,29.82,SSE,158,1.0,1.0,96,0.00,,,0.02,Wunderground v.1.15,2013-05-12 06:43:00,
2013-05-12 02:46:00,60.2,58.8,29.82,SSW,205,1.0,2.0,95,0.00,,,0.02,Wunderground v.1.15,2013-05-12 06:46:00,
2013-05-12 02:47:00,60.2,58.8,29.82,SSW,212,0.0,2.0,95,0.00,,,0.02,Wunderground v.1.15,2013-05-12 06:47:00,
2013-05-12 02:48:00,60.2,58.8,29.82,SSE,148,0.0,2.0,95,0.00,,,0.02,Wunderground v.1.15,2013-05-12 06:48:00,
2013-05-12 02:51:00,60.1,58.4,29.82,SSE,155,0.0,1.0,94,0.00,,,0.02,Wunderground v.1.15,2013-05-12 06:51:00,
2013-05-12 02:52:00,60.1,58.4,29.82,SW,225,0.0,1.0,94,0.00,,,0.02,Wunderground v.1.15,2013-05-12 06:52:00,
2013-05-12 02:53:00,60.0,58.3,29.82,SSW,210,1.0,1.0,94,0.00,,,0.02,Wunderground v.1.15,2013-05-12 06:53:00,
2013-05-12 02:56:00,59.9,58.2,29.82,SW,219,0.0,1.0,94,0.00,,,0.02,Wunderground v.1.15,2013-05-12 06:56:00,
2013-05-12 02:57:00,59.9,57.9,29.82,SW,219,1.0,1.0,93,0.00,,,0.02,Wunderground v.1.15,2013-05-12 06:57:00,
2013-05-12 02:58:00,59.8,57.8,29.82,WSW,249,0.0,1.0,93,0.00,,,0.02,Wunderground v.1.15,2013-05-12 06:58:00,
2013-05-12 02:59:00,59.8,57.8,29.82,WSW,249,0.0,1.0,93,0.00,,,0.02,Wunderground v.1.15,2013-05-12 06:59:00,
2013-05-12 03:01:00,59.8,57.8,29.82,NE,44,0.0,0.0,93,0.00,,,0.02,Wunderground v.1.15,2013-05-12 07:01:00,
2013-05-12 03:02:00,59.8,57.8,29.82,NE,44,0.0,0.0,93,0.00,,,0.02,Wunderground v.1.15,2013-05-12 07:02:00,
2013-05-12 03:04:00,59.7,57.7,29.81,NE,44,0.0,0.0,93,0.00,,,0.02,Wunderground v.1.15,2013-05-12 07:04:00,
2013-05-12 03:06:00,59.5,57.5,29.82,NE,44,0.0,0.0,93,0.00,,,0.02,Wunderground v.1.15,2013-05-12 07:06:00,
2013-05-12 03:07:00,59.5,57.5,29.82,NE,44,0.0,0.0,93,0.00,,,0.02,Wunderground v.1.15,2013-05-12 07:07:00,
2013-05-12 03:09:00,59.4,57.4,29.82,North,11,0.0,0.0,93,0.00,,,0.02,Wunderground v.1.15,2013-05-12 07:09:00,
2013-05-12 03:11:00,59.3,57.3,29.82,North,11,0.0,0.0,93,0.00,,,0.02,Wunderground v.1.15,2013-05-12 07:11:00,
2013-05-12 03:12:00,59.3,57.3,29.82,North,10,0.0,0.0,93,0.00,,,0.02,Wunderground v.1.15,2013-05-12 07:12:00,
2013-05-12 03:14:00,59.1,57.1,29.82,North,11,0.0,0.0,93,0.00,,,0.02,Wunderground v.1.15,2013-05-12 07:14:00,
2013-05-12 03:17:00,59.0,56.7,29.82,SW,226,0.0,0.0,92,0.00,,,0.02,Wunderground v.1.15,2013-05-12 07:17:00,
2013-05-12 03:19:00,58.9,56.9,29.82,SW,226,0.0,0.0,93,0.00,,,0.02,Wunderground v.1.15,2013-05-12 07:19:00,
2013-05-12 03:20:00,58.9,56.9,29.82,SW,226,0.0,0.0,93,0.00,,,0.02,Wunderground v.1.15,2013-05-12 07:20:00,
2013-05-12 03:22:00,58.9,56.9,29.81,SW,226,0.0,0.0,93,0.00,,,0.02,Wunderground v.1.15,2013-05-12 07:22:00,
2013-05-12 03:24:00,58.8,56.8,29.82,SW,226,0.0,0.0,93,0.00,,,0.02,Wunderground v.1.15,2013-05-12 07:24:00,
2013-05-12 03:25:00,58.7,56.7,29.82,SW,226,0.0,0.0,93,0.00,,,0.02,Wunderground v.1.15,2013-05-12 07:25:00,
2013-05-12 03:27:00,58.7,56.7,29.82,SW,222,0.0,1.0,93,0.00,,,0.02,Wunderground v.1.15,2013-05-12 07:27:00,
2013-05-12 03:28:00,58.6,56.6,29.82,SW,222,0.0,1.0,93,0.00,,,0.02,Wunderground v.1.15,2013-05-12 07:28:00,
2013-05-12 03:29:00,58.6,56.6,29.83,SW,222,0.0,1.0,93,0.00,,,0.02,Wunderground v.1.15,2013-05-12 07:29:00,
2013-05-12 03:30:00,58.6,56.6,29.83,SW,222,1.0,1.0,93,0.00,,,0.02,Wunderground v.1.15,2013-05-12 07:30:00,
2013-05-12 03:32:00,58.5,56.2,29.83,SW,215,0.0,1.0,92,0.00,,,0.02,Wunderground v.1.15,2013-05-12 07:32:00,
2013-05-12 03:33:00,58.5,56.2,29.83,SW,215,0.0,1.0,92,0.00,,,0.02,Wunderground v.1.15,2013-05-12 07:33:00,
2013-05-12 03:35:00,58.4,56.1,29.83,SW,215,0.0,1.0,92,0.00,,,0.02,Wunderground v.1.15,2013-05-12 07:35:00,
2013-05-12 03:37:00,58.3,56.0,29.83,SW,222,0.0,1.0,92,0.00,,,0.02,Wunderground v.1.15,2013-05-12 07:37:00,
2013-05-12 03:38:00,58.3,56.0,29.82,SW,221,0.0,1.0,92,0.00,,,0.02,Wunderground v.1.15,2013-05-12 07:38:00,
2013-05-12 03:40:00,58.3,56.0,29.82,SW,222,0.0,0.0,92,0.00,,,0.02,Wunderground v.1.15,2013-05-12 07:40:00,
2013-05-12 03:41:00,58.3,56.3,29.82,SW,222,0.0,0.0,93,0.00,,,0.02,Wunderground v.1.15,2013-05-12 07:41:00,
2013-05-12 03:42:00,58.3,56.3,29.82,SW,222,0.0,0.0,93,0.00,,,0.02,Wunderground v.1.15,2013-05-12 07:42:00,
2013-05-12 03:43:00,58.3,56.3,29.82,SW,222,0.0,0.0,93,0.00,,,0.02,Wunderground v.1.15,2013-05-12 07:43:00,
2013-05-12 03:45:00,58.3,56.3,29.82,SW,222,0.0,0.0,93,0.00,,,0.02,Wunderground v.1.15,2013-05-12 07:45:00,
2013-05-12 03:46:00,58.3,56.3,29.82,SW,222,0.0,0.0,93,0.00,,,0.02,Wunderground v.1.15,2013-05-12 07:46:00,
2013-05-12 03:48:00,58.3,56.3,29.82,SW,222,0.0,0.0,93,0.00,,,0.02,Wunderground v.1.15,2013-05-12 07:48:00,
2013-05-12 03:49:00,58.3,56.3,29.82,SW,222,0.0,0.0,93,0.00,,,0.02,Wunderground v.1.15,2013-05-12 07:49:00,
2013-05-12 03:50:00,58.2,56.2,29.82,SW,222,0.0,0.0,93,0.00,,,0.02,Wunderground v.1.15,2013-05-12 07:50:00,
2013-05-12 03:51:00,58.2,56.2,29.82,SW,222,0.0,0.0,93,0.00,,,0.02,Wunderground v.1.15,2013-05-12 07:51:00,
2013-05-12 03:53:00,58.1,56.4,29.82,SW,222,0.0,0.0,94,0.00,,,0.02,Wunderground v.1.15,2013-05-12 07:53:00,
2013-05-12 03:54:00,58.1,56.4,29.82,SW,222,0.0,0.0,94,0.00,,,0.02,Wunderground v.1.15,2013-05-12 07:54:00,
2013-05-12 03:55:00,58.1,56.4,29.82,SW,221,0.0,0.0,94,0.00,,,0.02,Wunderground v.1.15,2013-05-12 07:55:00,
2013-05-12 03:56:00,58.0,56.3,29.82,SW,221,0.0,0.0,94,0.00,,,0.02,Wunderground v.1.15,2013-05-12 07:56:00,
2013-05-12 03:59:00,57.8,56.1,29.82,West,270,0.0,1.0,94,0.00,,,0.02,Wunderground v.1.15,2013-05-12 07:59:00,
2013-05-12 04:00:00,57.8,56.1,29.82,West,270,0.0,0.0,94,0.00,,,0.02,Wunderground v.1.15,2013-05-12 08:00:00,
2013-05-12 04:01:00,57.8,56.1,29.82,West,270,0.0,0.0,94,0.00,,,0.02,Wunderground v.1.15,2013-05-12 08:01:00,
2013-05-12 04:04:00,57.6,55.9,29.83,West,270,0.0,1.0,94,0.00,,,0.02,Wunderground v.1.15,2013-05-12 08:04:00,
2013-05-12 04:05:00,57.6,55.9,29.83,West,276,2.0,2.0,94,0.00,,,0.02,Wunderground v.1.15,2013-05-12 08:05:00,
2013-05-12 04:06:00,57.5,55.8,29.83,West,276,1.0,2.0,94,0.00,,,0.02,Wunderground v.1.15,2013-05-12 08:06:00,
2013-05-12 04:09:00,57.4,55.4,29.83,SSW,197,0.0,2.0,93,0.00,,,0.02,Wunderground v.1.15,2013-05-12 08:09:00,
2013-05-12 04:10:00,57.4,55.4,29.83,SE,138,0.0,0.0,93,0.00,,,0.02,Wunderground v.1.15,2013-05-12 08:10:00,
2013-05-12 04:11:00,57.4,55.4,29.83,ENE,72,2.0,2.0,93,0.00,,,0.02,Wunderground v.1.15,2013-05-12 08:11:00,
2013-05-12 04:15:00,57.3,55.3,29.83,West,259,1.0,2.0,93,0.00,,,0.02,Wunderground v.1.15,2013-05-12 08:15:00,
2013-05-12 04:16:00,57.3,55.3,29.83,NNE,15,0.0,2.0,93,0.00,,,0.02,Wunderground v.1.15,2013-05-12 08:16:00,
2013-05-12 04:20:00,57.2,54.6,29.83,NNE,27,1.0,1.0,91,0.00,,,0.02,Wunderground v.1.15,2013-05-12 08:20:00,
2013-05-12 04:21:00,57.3,54.7,29.83,East,79,2.0,2.0,91,0.00,,,0.02,Wunderground v.1.15,2013-05-12 08:21:00,
2013-05-12 04:22:00,57.2,54.3,29.83,ENE,58,1.0,5.0,90,0.00,,,0.02,Wunderground v.1.15,2013-05-12 08:22:00,
2013-05-12 04:25:00,57.1,53.6,29.83,WSW,250,0.0,5.0,88,0.00,,,0.02,Wunderground v.1.15,2013-05-12 08:25:00,
2013-05-12 04:26:00,57.1,53.6,29.83,NNE,27,1.0,5.0,88,0.00,,,0.02,Wunderground v.1.15,2013-05-12 08:26:00,
2013-05-12 04:27:00,57.1,53.3,29.83,East,83,1.0,5.0,87,0.00,,,0.02,Wunderground v.1.15,2013-05-12 08:27:00,
2013-05-12 04:30:00,57.0,52.5,29.83,West,262,1.0,2.0,85,0.00,,,0.02,Wunderground v.1.15,2013-05-12 08:30:00,
2013-05-12 04:31:00,57.0,52.5,29.83,North,356,1.0,2.0,85,0.00,,,0.02,Wunderground v.1.15,2013-05-12 08:31:00,
2013-05-12 04:32:00,57.0,52.5,29.83,NNE,21,0.0,2.0,85,0.00,,,0.02,Wunderground v.1.15,2013-05-12 08:32:00,
2013-05-12 04:35:00,56.9,52.1,29.83,West,271,0.0,2.0,84,0.00,,,0.02,Wunderground v.1.15,2013-05-12 08:35:00,
2013-05-12 04:36:00,56.9,52.1,29.83,West,271,0.0,2.0,84,0.00,,,0.02,Wunderground v.1.15,2013-05-12 08:36:00,
2013-05-12 04:37:00,56.9,52.8,29.83,West,271,0.0,2.0,86,0.00,,,0.02,Wunderground v.1.15,2013-05-12 08:37:00,
2013-05-12 04:40:00,56.6,52.5,29.83,East,98,0.0,0.0,86,0.00,,,0.02,Wunderground v.1.15,2013-05-12 08:40:00,
2013-05-12 04:41:00,56.7,52.6,29.83,East,99,0.0,0.0,86,0.00,,,0.02,Wunderground v.1.15,2013-05-12 08:41:00,
2013-05-12 04:42:00,56.6,52.5,29.83,East,98,0.0,0.0,86,0.00,,,0.02,Wunderground v.1.15,2013-05-12 08:42:00,
2013-05-12 04:45:00,56.3,51.5,29.83,East,98,0.0,0.0,84,0.00,,,0.02,Wunderground v.1.15,2013-05-12 08:45:00,
2013-05-12 04:46:00,56.2,51.4,29.83,East,99,0.0,0.0,84,0.00,,,0.02,Wunderground v.1.15,2013-05-12 08:46:00,
2013-05-12 04:47:00,56.2,51.1,29.83,South,176,0.0,4.0,83,0.00,,,0.02,Wunderground v.1.15,2013-05-12 08:47:00,
2013-05-12 04:48:00,56.2,50.8,29.83,ENE,68,3.0,7.0,82,0.00,,,0.02,Wunderground v.1.15,2013-05-12 08:48:00,
2013-05-12 04:51:00,56.2,51.1,29.84,East,94,0.0,1.0,83,0.00,,,0.02,Wunderground v.1.15,2013-05-12 08:51:00,
2013-05-12 04:52:00,56.2,51.1,29.84,East,93,0.0,1.0,83,0.00,,,0.02,Wunderground v.1.15,2013-05-12 08:52:00,
2013-05-12 04:53:00,56.2,50.8,29.84,East,93,1.0,1.0,82,0.00,,,0.02,Wunderground v.1.15,2013-05-12 08:53:00,
2013-05-12 04:56:00,56.1,50.7,29.84,NW,305,1.0,2.0,82,0.00,,,0.02,Wunderground v.1.15,2013-05-12 08:56:00,
2013-05-12 04:57:00,56.1,50.7,29.84,SW,231,0.0,2.0,82,0.00,,,0.02,Wunderground v.1.15,2013-05-12 08:57:00,
2013-05-12 04:58:00,56.0,50.6,29.84,SW,232,0.0,2.0,82,0.00,,,0.02,Wunderground v.1.15,2013-05-12 08:58:00,
2013-05-12 05:01:00,55.9,50.5,29.84,SW,232,0.0,0.0,82,0.00,,,0.02,Wunderground v.1.15,2013-05-12 09:01:00,
2013-05-12 05:02:00,55.8,50.7,29.84,SW,232,0.0,0.0,83,0.00,,,0.02,Wunderground v.1.15,2013-05-12 09:02:00,
2013-05-12 05:03:00,55.7,50.6,29.84,SE,125,0.0,0.0,83,0.00,,,0.02,Wunderground v.1.15,2013-05-12 09:03:00,
2013-05-12 05:04:00,55.7,50.6,29.84,SE,125,0.0,0.0,83,0.00,,,0.02,Wunderground v.1.15,2013-05-12 09:04:00,
2013-05-12 05:06:00,55.6,50.8,29.84,SE,124,0.0,1.0,84,0.00,,,0.02,Wunderground v.1.15,2013-05-12 09:06:00,
2013-05-12 05:07:00,55.6,50.8,29.84,SE,125,0.0,1.0,84,0.00,,,0.02,Wunderground v.1.15,2013-05-12 09:07:00,
2013-05-12 05:08:00,55.5,51.1,29.84,SSE,151,0.0,1.0,85,0.00,,,0.02,Wunderground v.1.15,2013-05-12 09:08:00,
2013-05-12 05:09:00,55.5,51.1,29.84,SSE,150,0.0,1.0,85,0.00,,,0.02,Wunderground v.1.15,2013-05-12 09:09:00,
2013-05-12 05:12:00,55.2,50.4,29.84,West,266,0.0,0.0,84,0.00,,,0.02,Wunderground v.1.15,2013-05-12 09:12:00,
2013-05-12 05:14:00,55.1,50.0,29.84,West,266,0.0,0.0,83,0.00,,,0.02,Wunderground v.1.15,2013-05-12 09:14:00,
2013-05-12 05:17:00,55.2,50.1,29.84,West,266,0.0,0.0,83,0.00,,,0.02,Wunderground v.1.15,2013-05-12 09:17:00,
2013-05-12 05:19:00,55.2,50.1,29.84,WNW,289,0.0,2.0,83,0.00,,,0.02,Wunderground v.1.15,2013-05-12 09:19:00,
2013-05-12 05:22:00,55.2,49.8,29.84,WNW,289,0.0,1.0,82,0.00,,,0.02,Wunderground v.1.15,2013-05-12 09:22:00,
2013-05-12 05:23:00,55.2,50.1,29.84,WNW,290,0.0,1.0,83,0.00,,,0.02,Wunderground v.1.15,2013-05-12 09:23:00,
2013-05-12 05:24:00,55.1,49.7,29.84,WNW,289,0.0,1.0,82,0.00,,,0.02,Wunderground v.1.15,2013-05-12 09:24:00,
2013-05-12 05:25:00,55.1,49.7,29.84,WNW,289,0.0,1.0,82,0.00,,,0.02,Wunderground v.1.15,2013-05-12 09:25:00,
2013-05-12 05:27:00,55.0,50.3,29.84,WNW,289,0.0,1.0,84,0.00,,,0.02,Wunderground v.1.15,2013-05-12 09:27:00,
2013-05-12 05:28:00,54.9,49.8,29.84,WNW,289,0.0,1.0,83,0.00,,,0.02,Wunderground v.1.15,2013-05-12 09:28:00,
2013-05-12 05:29:00,54.8,50.4,29.84,WNW,290,0.0,1.0,85,0.00,,,0.02,Wunderground v.1.15,2013-05-12 09:29:00,
2013-05-12 05:30:00,54.8,50.4,29.84,WNW,290,0.0,0.0,85,0.00,,,0.02,Wunderground v.1.15,2013-05-12 09:30:00,
2013-05-12 05:32:00,54.5,49.8,29.84,ENE,67,0.0,1.0,84,0.00,,,0.02,Wunderground v.1.15,2013-05-12 09:32:00,
2013-05-12 05:33:00,54.5,50.1,29.84,ENE,66,0.0,1.0,85,0.00,,,0.02,Wunderground v.1.15,2013-05-12 09:33:00,
2013-05-12 05:35:00,54.3,49.6,29.84,ENE,66,0.0,1.0,84,0.00,,,0.02,Wunderground v.1.15,2013-05-12 09:35:00,
2013-05-12 05:37:00,54.2,49.5,29.84,ENE,67,0.0,1.0,84,0.00,,,0.02,Wunderground v.1.15,2013-05-12 09:37:00,
2013-05-12 05:38:00,54.2,49.5,29.84,ENE,67,0.0,1.0,84,0.00,,,0.02,Wunderground v.1.15,2013-05-12 09:38:00,
2013-05-12 05:40:00,54.1,49.4,29.84,NW,322,0.0,0.0,84,0.00,,,0.02,Wunderground v.1.15,2013-05-12 09:40:00,
2013-05-12 05:43:00,54.1,49.4,29.84,WSW,253,0.0,0.0,84,0.00,,,0.02,Wunderground v.1.15,2013-05-12 09:43:00,
2013-05-12 05:45:00,54.0,49.6,29.85,WSW,253,0.0,0.0,85,0.00,,,0.02,Wunderground v.1.15,2013-05-12 09:45:00,
2013-05-12 05:46:00,53.9,49.5,29.85,WSW,253,0.0,0.0,85,0.00,,,0.02,Wunderground v.1.15,2013-05-12 09:46:00,
2013-05-12 05:48:00,53.8,49.1,29.85,WSW,253,0.0,0.0,84,0.00,,,0.02,Wunderground v.1.15,2013-05-12 09:48:00,
2013-05-12 05:51:00,53.7,49.0,29.85,WSW,253,0.0,0.0,84,0.00,,,0.02,Wunderground v.1.15,2013-05-12 09:51:00,
2013-05-12 05:53:00,53.6,49.2,29.85,WSW,253,0.0,0.0,85,0.00,,,0.02,Wunderground v.1.15,2013-05-12 09:53:00,
2013-05-12 05:54:00,53.5,49.1,29.85,WSW,252,0.0,0.0,85,0.00,,,0.02,Wunderground v.1.15,2013-05-12 09:54:00,
2013-05-12 05:56:00,53.4,49.3,29.85,WSW,252,0.0,0.0,86,0.00,,,0.02,Wunderground v.1.15,2013-05-12 09:56:00,
2013-05-12 05:59:00,53.2,49.1,29.85,WSW,252,0.0,0.0,86,0.00,,,0.02,Wunderground v.1.15,2013-05-12 09:59:00,
2013-05-12 06:01:00,53.1,49.3,29.85,WSW,252,0.0,0.0,87,0.00,,,0.02,Wunderground v.1.15,2013-05-12 10:01:00,
2013-05-12 06:04:00,52.8,49.6,29.85,WSW,252,0.0,0.0,89,0.00,,,0.02,Wunderground v.1.15,2013-05-12 10:04:00,
2013-05-12 06:06:00,52.6,49.4,29.85,WSW,251,0.0,0.0,89,0.00,,,0.02,Wunderground v.1.15,2013-05-12 10:06:00,
2013-05-12 06:09:00,52.3,49.5,29.86,WSW,253,0.0,0.0,90,0.00,,,0.02,Wunderground v.1.15,2013-05-12 10:09:00,
2013-05-12 06:10:00,52.2,49.4,29.86,WSW,253,0.0,0.0,90,0.00,,,0.02,Wunderground v.1.15,2013-05-12 10:10:00,
2013-05-12 06:12:00,52.0,49.5,29.86,WSW,253,0.0,0.0,91,0.00,,,0.02,Wunderground v.1.15,2013-05-12 10:12:00,
2013-05-12 06:14:00,51.8,49.3,29.86,WSW,253,0.0,0.0,91,0.00,,,0.02,Wunderground v.1.15,2013-05-12 10:14:00,
2013-05-12 06:15:00,51.8,49.3,29.86,WSW,253,0.0,0.0,91,0.00,,,0.02,Wunderground v.1.15,2013-05-12 10:15:00,
2013-05-12 06:17:00,51.6,49.4,29.86,WSW,253,0.0,0.0,92,0.00,,,0.02,Wunderground v.1.15,2013-05-12 10:17:00,
2013-05-12 06:19:00,51.4,49.2,29.86,WSW,253,0.0,0.0,92,0.00,,,0.02,Wunderground v.1.15,2013-05-12 10:19:00,
2013-05-12 06:20:00,51.4,49.2,29.86,WSW,253,0.0,0.0,92,0.00,,,0.02,Wunderground v.1.15,2013-05-12 10:20:00,
2013-05-12 06:22:00,51.3,49.1,29.86,WSW,253,0.0,0.0,92,0.00,,,0.02,Wunderground v.1.15,2013-05-12 10:22:00,
2013-05-12 06:25:00,51.2,49.0,29.86,WSW,253,0.0,0.0,92,0.00,,,0.02,Wunderground v.1.15,2013-05-12 10:25:00,
2013-05-12 06:27:00,51.1,49.1,29.86,WSW,253,0.0,0.0,93,0.00,,,0.02,Wunderground v.1.15,2013-05-12 10:27:00,
2013-05-12 06:30:00,51.0,49.0,29.87,WSW,253,0.0,0.0,93,0.00,,,0.02,Wunderground v.1.15,2013-05-12 10:30:00,
2013-05-12 06:32:00,50.9,48.9,29.87,WSW,253,0.0,0.0,93,0.00,,,0.02,Wunderground v.1.15,2013-05-12 10:32:00,
2013-05-12 06:35:00,50.8,48.8,29.87,WSW,253,0.0,0.0,93,0.00,,,0.02,Wunderground v.1.15,2013-05-12 10:35:00,
2013-05-12 06:36:00,50.8,49.1,29.87,WSW,253,0.0,0.0,94,0.00,,,0.02,Wunderground v.1.15,2013-05-12 10:36:00,
2013-05-12 06:37:00,50.7,49.0,29.87,WSW,253,0.0,0.0,94,0.00,,,0.02,Wunderground v.1.15,2013-05-12 10:37:00,
2013-05-12 06:40:00,50.6,48.9,29.87,WSW,253,0.0,0.0,94,0.00,,,0.02,Wunderground v.1.15,2013-05-12 10:40:00,
2013-05-12 06:41:00,50.6,48.9,29.87,WSW,253,0.0,0.0,94,0.00,,,0.02,Wunderground v.1.15,2013-05-12 10:41:00,
2013-05-12 06:42:00,50.6,48.9,29.88,WSW,252,0.0,0.0,94,0.00,,,0.02,Wunderground v.1.15,2013-05-12 10:42:00,
2013-05-12 06:43:00,50.5,48.8,29.88,WSW,252,0.0,0.0,94,0.00,,,0.02,Wunderground v.1.15,2013-05-12 10:43:00,
2013-05-12 06:45:00,50.4,48.7,29.88,WSW,253,0.0,0.0,94,0.00,,,0.02,Wunderground v.1.15,2013-05-12 10:45:00,
2013-05-12 06:46:00,50.4,48.7,29.88,WSW,253,0.0,0.0,94,0.00,,,0.02,Wunderground v.1.15,2013-05-12 10:46:00,
2013-05-12 06:49:00,50.3,48.6,29.88,WSW,253,0.0,0.0,94,0.00,,,0.02,Wunderground v.1.15,2013-05-12 10:49:00,
2013-05-12 06:51:00,50.3,48.9,29.88,WSW,253,0.0,0.0,95,0.00,,,0.02,Wunderground v.1.15,2013-05-12 10:51:00,
2013-05-12 06:52:00,50.2,48.8,29.88,WSW,253,0.0,0.0,95,0.00,,,0.02,Wunderground v.1.15,2013-05-12 10:52:00,
2013-05-12 06:54:00,50.3,48.9,29.88,WSW,252,0.0,0.0,95,0.00,,,0.02,Wunderground v.1.15,2013-05-12 10:54:00,
2013-05-12 06:56:00,50.2,48.8,29.88,WSW,253,0.0,0.0,95,0.00,,,0.02,Wunderground v.1.15,2013-05-12 10:56:00,
2013-05-12 06:57:00,50.2,48.8,29.88,WSW,253,0.0,0.0,95,0.00,,,0.02,Wunderground v.1.15,2013-05-12 10:57:00,
2013-05-12 06:59:00,50.2,48.8,29.88,WSW,253,0.0,0.0,95,0.00,,,0.02,Wunderground v.1.15,2013-05-12 10:59:00,
2013-05-12 07:01:00,50.2,48.8,29.88,WSW,253,0.0,0.0,95,0.00,,,0.02,Wunderground v.1.15,2013-05-12 11:01:00,
2013-05-12 07:02:00,50.2,48.8,29.88,WSW,252,0.0,0.0,95,0.00,,,0.02,Wunderground v.1.15,2013-05-12 11:02:00,
2013-05-12 07:05:00,50.1,48.7,29.88,WSW,253,0.0,0.0,95,0.00,,,0.02,Wunderground v.1.15,2013-05-12 11:05:00,
2013-05-12 07:06:00,50.1,48.7,29.88,WSW,253,0.0,0.0,95,0.00,,,0.02,Wunderground v.1.15,2013-05-12 11:06:00,
2013-05-12 07:07:00,50.2,48.8,29.88,WSW,252,0.0,0.0,95,0.00,,,0.02,Wunderground v.1.15,2013-05-12 11:07:00,
2013-05-12 07:10:00,50.2,49.1,29.89,WSW,253,0.0,0.0,96,0.00,,,0.02,Wunderground v.1.15,2013-05-12 11:10:00,
2013-05-12 07:11:00,50.3,49.2,29.88,WSW,253,0.0,0.0,96,0.00,,,0.02,Wunderground v.1.15,2013-05-12 11:11:00,
2013-05-12 07:12:00,50.3,49.2,29.88,WSW,252,0.0,0.0,96,0.00,,,0.02,Wunderground v.1.15,2013-05-12 11:12:00,
2013-05-12 07:15:00,50.3,49.2,29.89,WSW,253,0.0,0.0,96,0.00,,,0.02,Wunderground v.1.15,2013-05-12 11:15:00,
2013-05-12 07:17:00,50.3,48.9,29.89,WSW,253,0.0,0.0,95,0.00,,,0.02,Wunderground v.1.15,2013-05-12 11:17:00,
2013-05-12 07:20:00,50.4,49.0,29.88,WSW,253,0.0,0.0,95,0.00,,,0.02,Wunderground v.1.15,2013-05-12 11:20:00,
2013-05-12 07:22:00,50.5,49.4,29.88,WSW,253,0.0,0.0,96,0.00,,,0.02,Wunderground v.1.15,2013-05-12 11:22:00,
2013-05-12 07:23:00,50.5,49.4,29.88,WSW,253,0.0,0.0,96,0.00,,,0.02,Wunderground v.1.15,2013-05-12 11:23:00,
2013-05-12 07:25:00,50.6,49.2,29.88,WSW,253,0.0,0.0,95,0.00,,,0.02,Wunderground v.1.15,2013-05-12 11:25:00,
2013-05-12 07:27:00,50.8,49.4,29.89,WSW,253,0.0,0.0,95,0.00,,,0.02,Wunderground v.1.15,2013-05-12 11:27:00,
2013-05-12 07:29:00,50.9,49.5,29.89,WSW,253,0.0,0.0,95,0.00,,,0.02,Wunderground v.1.15,2013-05-12 11:29:00,
2013-05-12 07:30:00,50.9,49.5,29.89,WSW,253,0.0,0.0,95,0.00,,,0.02,Wunderground v.1.15,2013-05-12 11:30:00,
2013-05-12 07:32:00,51.0,49.6,29.89,WSW,253,0.0,0.0,95,0.00,,,0.02,Wunderground v.1.15,2013-05-12 11:32:00,
2013-05-12 07:33:00,51.1,49.7,29.89,WSW,253,0.0,0.0,95,0.00,,,0.02,Wunderground v.1.15,2013-05-12 11:33:00,
2013-05-12 07:34:00,51.2,49.8,29.89,WSW,252,0.0,0.0,95,0.00,,,0.02,Wunderground v.1.15,2013-05-12 11:34:00,
2013-05-12 07:35:00,51.3,49.9,29.89,WSW,253,0.0,0.0,95,0.00,,,0.02,Wunderground v.1.15,2013-05-12 11:35:00,
2013-05-12 07:37:00,51.4,50.0,29.89,WSW,253,0.0,0.0,95,0.00,,,0.02,Wunderground v.1.15,2013-05-12 11:37:00,
2013-05-12 07:38:00,51.5,50.1,29.89,WSW,253,0.0,0.0,95,0.00,,,0.02,Wunderground v.1.15,2013-05-12 11:38:00,
2013-05-12 07:39:00,51.5,50.1,29.89,WSW,253,0.0,0.0,95,0.00,,,0.02,Wunderground v.1.15,2013-05-12 11:39:00,
2013-05-12 07:40:00,51.6,50.2,29.89,WSW,253,0.0,0.0,95,0.00,,,0.02,Wunderground v.1.15,2013-05-12 11:40:00,
2013-05-12 07:42:00,51.6,50.2,29.89,WSW,252,0.0,0.0,95,0.00,,,0.02,Wunderground v.1.15,2013-05-12 11:42:00,
2013-05-12 07:43:00,51.7,50.3,29.89,WSW,253,0.0,0.0,95,0.00,,,0.02,Wunderground v.1.15,2013-05-12 11:43:00,
2013-05-12 07:44:00,51.7,50.3,29.89,WSW,253,0.0,0.0,95,0.00,,,0.02,Wunderground v.1.15,2013-05-12 11:44:00,
2013-05-12 07:45:00,51.8,50.4,29.89,WSW,253,0.0,0.0,95,0.00,,,0.02,Wunderground v.1.15,2013-05-12 11:45:00,
2013-05-12 07:48:00,52.0,50.6,29.89,WSW,253,0.0,0.0,95,0.00,,,0.02,Wunderground v.1.15,2013-05-12 11:48:00,
2013-05-12 07:49:00,52.0,50.6,29.89,WSW,253,0.0,0.0,95,0.00,,,0.02,Wunderground v.1.15,2013-05-12 11:49:00,
2013-05-12 07:50:00,52.0,50.6,29.89,WSW,252,0.0,0.0,95,0.00,,,0.02,Wunderground v.1.15,2013-05-12 11:50:00,
2013-05-12 07:51:00,52.1,50.7,29.89,WSW,253,0.0,0.0,95,0.00,,,0.02,Wunderground v.1.15,2013-05-12 11:51:00,
2013-05-12 07:54:00,52.2,50.8,29.90,WSW,253,0.0,0.0,95,0.00,,,0.02,Wunderground v.1.15,2013-05-12 11:54:00,
2013-05-12 07:55:00,52.3,50.6,29.89,WSW,253,0.0,0.0,94,0.00,,,0.02,Wunderground v.1.15,2013-05-12 11:55:00,
2013-05-12 07:56:00,52.3,50.6,29.89,WSW,253,0.0,0.0,94,0.00,,,0.02,Wunderground v.1.15,2013-05-12 11:56:00,
2013-05-12 07:59:00,52.4,50.7,29.90,WSW,253,0.0,0.0,94,0.00,,,0.02,Wunderground v.1.15,2013-05-12 11:59:00,
2013-05-12 08:00:00,52.5,50.8,29.90,WSW,253,0.0,0.0,94,0.00,,,0.02,Wunderground v.1.15,2013-05-12 12:00:00,
2013-05-12 08:01:00,52.5,50.8,29.90,WSW,253,0.0,0.0,94,0.00,,,0.02,Wunderground v.1.15,2013-05-12 12:01:00,
2013-05-12 08:04:00,52.7,51.0,29.90,WSW,253,0.0,0.0,94,0.00,,,0.02,Wunderground v.1.15,2013-05-12 12:04:00,
2013-05-12 08:06:00,52.9,51.2,29.90,WSW,253,0.0,0.0,94,0.00,,,0.02,Wunderground v.1.15,2013-05-12 12:06:00,
2013-05-12 08:09:00,53.1,51.1,29.90,NNE,33,1.0,2.0,93,0.00,,,0.02,Wunderground v.1.15,2013-05-12 12:09:00,
2013-05-12 08:11:00,53.3,51.3,29.90,NNE,32,0.0,0.0,93,0.00,,,0.02,Wunderground v.1.15,2013-05-12 12:11:00,
2013-05-12 08:14:00,53.9,51.6,29.90,WNW,287,0.0,2.0,92,0.00,,,0.02,Wunderground v.1.15,2013-05-12 12:14:00,
2013-05-12 08:16:00,54.0,51.4,29.90,WSW,240,0.0,2.0,91,0.00,,,0.02,Wunderground v.1.15,2013-05-12 12:16:00,
2013-05-12 08:17:00,54.2,51.3,29.90,WSW,240,0.0,2.0,90,0.00,,,0.02,Wunderground v.1.15,2013-05-12 12:17:00,
2013-05-12 08:19:00,54.5,51.6,29.90,WSW,240,0.0,2.0,90,0.00,,,0.02,Wunderground v.1.15,2013-05-12 12:19:00,
2013-05-12 08:20:00,54.6,51.4,29.90,WSW,240,0.0,0.0,89,0.00,,,0.02,Wunderground v.1.15,2013-05-12 12:20:00,
2013-05-12 08:21:00,54.7,51.5,29.90,WSW,240,0.0,0.0,89,0.00,,,0.02,Wunderground v.1.15,2013-05-12 12:21:00,
2013-05-12 08:22:00,54.7,51.5,29.89,WSW,240,0.0,0.0,89,0.00,,,0.02,Wunderground v.1.15,2013-05-12 12:22:00,
2013-05-12 08:24:00,55.0,51.5,29.89,WSW,240,0.0,0.0,88,0.00,,,0.02,Wunderground v.1.15,2013-05-12 12:24:00,
2013-05-12 08:25:00,55.1,51.9,29.89,WSW,241,0.0,0.0,89,0.00,,,0.02,Wunderground v.1.15,2013-05-12 12:25:00,
2013-05-12 08:26:00,55.2,51.7,29.89,WSW,240,0.0,0.0,88,0.00,,,0.02,Wunderground v.1.15,2013-05-12 12:26:00,
2013-05-12 08:27:00,55.3,51.8,29.89,WSW,240,0.0,0.0,88,0.00,,,0.02,Wunderground v.1.15,2013-05-12 12:27:00,
2013-05-12 08:30:00,55.6,52.1,29.89,WSW,240,0.0,0.0,88,0.00,,,0.02,Wunderground v.1.15,2013-05-12 12:30:00,
2013-05-12 08:31:00,55.7,52.2,29.90,WSW,240,0.0,0.0,88,0.00,,,0.02,Wunderground v.1.15,2013-05-12 12:31:00,
2013-05-12 08:33:00,55.9,52.4,29.90,WSW,240,0.0,0.0,88,0.00,,,0.02,Wunderground v.1.15,2013-05-12 12:33:00,
2013-05-12 08:35:00,56.0,52.2,29.90,NNW,335,0.0,1.0,87,0.00,,,0.02,Wunderground v.1.15,2013-05-12 12:35:00,
2013-05-12 08:36:00,56.1,52.6,29.89,NNW,336,0.0,1.0,88,0.00,,,0.02,Wunderground v.1.15,2013-05-12 12:36:00,
2013-05-12 08:38:00,56.2,51.7,29.90,NNW,336,0.0,1.0,85,0.00,,,0.02,Wunderground v.1.15,2013-05-12 12:38:00,
2013-05-12 08:40:00,56.4,51.3,29.89,NNW,335,1.0,1.0,83,0.00,,,0.02,Wunderground v.1.15,2013-05-12 12:40:00,
2013-05-12 08:41:00,56.5,51.7,29.90,NNW,336,0.0,1.0,84,0.00,,,0.02,Wunderground v.1.15,2013-05-12 12:41:00,
2013-05-12 08:42:00,56.5,51.7,29.90,NNW,336,0.0,1.0,84,0.00,,,0.02,Wunderground v.1.15,2013-05-12 12:42:00,
2013-05-12 08:43:00,56.6,51.8,29.90,NNW,336,0.0,1.0,84,0.00,,,0.02,Wunderground v.1.15,2013-05-12 12:43:00,
2013-05-12 08:45:00,56.7,51.3,29.90,NE,43,1.0,1.0,82,0.00,,,0.02,Wunderground v.1.15,2013-05-12 12:45:00,
2013-05-12 08:46:00,56.7,50.9,29.90,East,79,1.0,2.0,81,0.00,,,0.02,Wunderground v.1.15,2013-05-12 12:46:00,
2013-05-12 08:47:00,56.9,51.1,29.90,East,93,0.0,2.0,81,0.00,,,0.02,Wunderground v.1.15,2013-05-12 12:47:00,
2013-05-12 08:48:00,57.1,52.3,29.90,East,93,0.0,2.0,84,0.00,,,0.02,Wunderground v.1.15,2013-05-12 12:48:00,
2013-05-12 08:51:00,57.4,51.9,29.90,East,88,0.0,0.0,82,0.00,,,0.02,Wunderground v.1.15,2013-05-12 12:51:00,
2013-05-12 08:52:00,57.6,52.1,29.90,East,88,0.0,0.0,82,0.00,,,0.02,Wunderground v.1.15,2013-05-12 12:52:00,
2013-05-12 08:53:00,57.7,52.2,29.90,East,87,0.0,1.0,82,0.00,,,0.02,Wunderground v.1.15,2013-05-12 12:53:00,
2013-05-12 08:56:00,57.9,52.1,29.90,East,87,0.0,1.0,81,0.00,,,0.02,Wunderground v.1.15,2013-05-12 12:56:00,
2013-05-12 08:57:00,58.0,52.2,29.90,East,92,0.0,1.0,81,0.00,,,0.02,Wunderground v.1.15,2013-05-12 12:57:00,
2013-05-12 08:59:00,58.1,52.0,29.90,East,89,0.0,1.0,80,0.00,,,0.02,Wunderground v.1.15,2013-05-12 12:59:00,
2013-05-12 09:01:00,58.4,53.9,29.90,WNW,284,0.0,2.0,85,0.00,,,0.02,Wunderground v.1.15,2013-05-12 13:01:00,
2013-05-12 09:02:00,58.5,53.4,29.90,WNW,284,1.0,2.0,83,0.00,,,0.02,Wunderground v.1.15,2013-05-12 13:02:00,
2013-05-12 09:04:00,58.7,52.9,29.90,West,281,0.0,2.0,81,0.00,,,0.02,Wunderground v.1.15,2013-05-12 13:04:00,
2013-05-12 09:06:00,59.0,52.5,29.90,NNE,33,1.0,2.0,79,0.00,,,0.02,Wunderground v.1.15,2013-05-12 13:06:00,
2013-05-12 09:07:00,59.2,51.6,29.90,ENE,60,1.0,2.0,76,0.00,,,0.02,Wunderground v.1.15,2013-05-12 13:07:00,
2013-05-12 09:08:00,59.3,51.7,29.90,West,269,1.0,2.0,76,0.00,,,0.02,Wunderground v.1.15,2013-05-12 13:08:00,
2013-05-12 09:09:00,59.5,51.9,29.90,West,273,0.0,2.0,76,0.00,,,0.02,Wunderground v.1.15,2013-05-12 13:09:00,
2013-05-12 09:11:00,60.0,51.7,29.90,NW,322,1.0,3.0,74,0.00,,,0.02,Wunderground v.1.15,2013-05-12 13:11:00,
2013-05-12 09:13:00,60.4,52.8,29.91,NW,321,0.0,3.0,76,0.00,,,0.02,Wunderground v.1.15,2013-05-12 13:13:00,
2013-05-12 09:14:00,60.6,52.6,29.90,SW,218,1.0,3.0,75,0.00,,,0.02,Wunderground v.1.15,2013-05-12 13:14:00,
2013-05-12 09:17:00,61.0,52.3,29.90,SW,221,0.0,3.0,73,0.00,,,0.02,Wunderground v.1.15,2013-05-12 13:17:00,
2013-05-12 09:18:00,61.3,52.9,29.90,SW,221,0.0,3.0,74,0.00,,,0.02,Wunderground v.1.15,2013-05-12 13:18:00,
2013-05-12 09:19:00,61.5,53.9,29.90,SW,221,0.0,3.0,76,0.00,,,0.02,Wunderground v.1.15,2013-05-12 13:19:00,
2013-05-12 09:22:00,62.2,54.2,29.90,WNW,288,1.0,2.0,75,0.00,,,0.02,Wunderground v.1.15,2013-05-12 13:22:00,
2013-05-12 09:24:00,62.4,52.9,29.90,WSW,240,3.0,3.0,71,0.00,,,0.02,Wunderground v.1.15,2013-05-12 13:24:00,
2013-05-12 09:25:00,62.6,53.4,29.90,WSW,240,1.0,5.0,72,0.00,,,0.02,Wunderground v.1.15,2013-05-12 13:25:00,
2013-05-12 09:27:00,62.9,53.0,29.90,SW,221,1.0,5.0,70,0.00,,,0.02,Wunderground v.1.15,2013-05-12 13:27:00,
2013-05-12 09:29:00,63.1,53.9,29.90,SW,221,2.0,5.0,72,0.00,,,0.02,Wunderground v.1.15,2013-05-12 13:29:00,
2013-05-12 09:30:00,63.2,52.9,29.91,SW,218,2.0,3.0,69,0.00,,,0.02,Wunderground v.1.15,2013-05-12 13:30:00,
2013-05-12 09:32:00,63.3,52.6,29.90,West,264,4.0,7.0,68,0.00,,,0.02,Wunderground v.1.15,2013-05-12 13:32:00,
2013-05-12 09:34:00,63.2,52.1,29.91,SW,226,2.0,7.0,67,0.00,,,0.02,Wunderground v.1.15,2013-05-12 13:34:00,
2013-05-12 09:35:00,63.3,53.0,29.90,West,267,1.0,7.0,69,0.00,,,0.02,Wunderground v.1.15,2013-05-12 13:35:00,
2013-05-12 09:37:00,63.4,51.8,29.90,WSW,252,0.0,7.0,66,0.00,,,0.02,Wunderground v.1.15,2013-05-12 13:37:00,
2013-05-12 09:39:00,63.5,51.9,29.90,WSW,239,2.0,7.0,66,0.00,,,0.02,Wunderground v.1.15,2013-05-12 13:39:00,
2013-05-12 09:40:00,63.6,53.2,29.91,WSW,257,1.0,4.0,69,0.00,,,0.02,Wunderground v.1.15,2013-05-12 13:40:00,
2013-05-12 09:41:00,63.6,53.2,29.91,SW,233,2.0,4.0,69,0.00,,,0.02,Wunderground v.1.15,2013-05-12 13:41:00,
2013-05-12 09:43:00,63.7,52.5,29.90,SW,236,2.0,4.0,67,0.00,,,0.02,Wunderground v.1.15,2013-05-12 13:43:00,
2013-05-12 09:44:00,63.8,52.6,29.91,WNW,284,2.0,7.0,67,0.00,,,0.02,Wunderground v.1.15,2013-05-12 13:44:00,
2013-05-12 09:45:00,63.8,53.0,29.91,WNW,285,1.0,7.0,68,0.00,,,0.02,Wunderground v.1.15,2013-05-12 13:45:00,
2013-05-12 09:46:00,63.8,53.0,29.91,NW,315,1.0,7.0,68,0.00,,,0.02,Wunderground v.1.15,2013-05-12 13:46:00,
2013-05-12 09:48:00,64.0,54.0,29.91,WNW,291,3.0,7.0,70,0.00,,,0.02,Wunderground v.1.15,2013-05-12 13:48:00,
2013-05-12 09:50:00,64.1,52.9,29.91,NNW,347,0.0,2.0,67,0.00,,,0.02,Wunderground v.1.15,2013-05-12 13:50:00,
2013-05-12 09:51:00,64.2,54.6,29.91,West,271,0.0,2.0,71,0.00,,,0.02,Wunderground v.1.15,2013-05-12 13:51:00,
2013-05-12 09:54:00,64.6,53.0,29.91,West,276,1.0,3.0,66,0.00,,,0.02,Wunderground v.1.15,2013-05-12 13:54:00,
2013-05-12 09:55:00,64.7,53.1,29.91,East,83,2.0,4.0,66,0.00,,,0.02,Wunderground v.1.15,2013-05-12 13:55:00,
2013-05-12 09:56:00,64.8,53.2,29.91,West,273,1.0,4.0,66,0.00,,,0.02,Wunderground v.1.15,2013-05-12 13:56:00,
2013-05-12 09:59:00,65.1,53.9,29.91,SW,223,1.0,4.0,67,0.00,,,0.02,Wunderground v.1.15,2013-05-12 13:59:00,
2013-05-12 10:00:00,65.2,53.1,29.91,WSW,253,2.0,6.0,65,0.00,,,0.02,Wunderground v.1.15,2013-05-12 14:00:00,
2013-05-12 10:01:00,65.3,52.8,29.91,WSW,239,5.0,6.0,64,0.00,,,0.02,Wunderground v.1.15,2013-05-12 14:01:00,
2013-05-12 10:02:00,65.3,52.8,29.91,WSW,248,2.0,6.0,64,0.00,,,0.02,Wunderground v.1.15,2013-05-12 14:02:00,
2013-05-12 10:04:00,65.2,53.1,29.91,WSW,253,1.0,6.0,65,0.00,,,0.02,Wunderground v.1.15,2013-05-12 14:04:00,
2013-05-12 10:05:00,65.2,52.3,29.91,WSW,257,3.0,6.0,63,0.00,,,0.02,Wunderground v.1.15,2013-05-12 14:05:00,
2013-05-12 10:06:00,65.2,52.3,29.91,NE,55,1.0,6.0,63,0.00,,,0.02,Wunderground v.1.15,2013-05-12 14:06:00,
2013-05-12 10:07:00,65.3,53.2,29.91,SW,235,4.0,6.0,65,0.00,,,0.02,Wunderground v.1.15,2013-05-12 14:07:00,
2013-05-12 10:09:00,65.4,52.9,29.91,WNW,286,3.0,7.0,64,0.00,,,0.02,Wunderground v.1.15,2013-05-12 14:09:00,
2013-05-12 10:10:00,65.5,53.8,29.91,WSW,245,1.0,2.0,66,0.00,,,0.02,Wunderground v.1.15,2013-05-12 14:10:00,
2013-05-12 10:11:00,65.5,53.4,29.91,SW,214,2.0,2.0,65,0.00,,,0.02,Wunderground v.1.15,2013-05-12 14:11:00,
2013-05-12 10:12:00,65.6,53.9,29.90,SW,218,4.0,4.0,66,0.00,,,0.02,Wunderground v.1.15,2013-05-12 14:12:00,
2013-05-12 10:14:00,65.6,53.1,29.91,West,270,3.0,8.0,64,0.00,,,0.02,Wunderground v.1.15,2013-05-12 14:14:00,
2013-05-12 10:15:00,65.6,52.7,29.91,West,274,2.0,8.0,63,0.00,,,0.02,Wunderground v.1.15,2013-05-12 14:15:00,
2013-05-12 10:16:00,65.6,53.1,29.91,SW,216,2.0,8.0,64,0.00,,,0.02,Wunderground v.1.15,2013-05-12 14:16:00,
2013-05-12 10:17:00,65.6,51.8,29.91,South,190,1.0,8.0,61,0.00,,,0.02,Wunderground v.1.15,2013-05-12 14:17:00,
2013-05-12 10:19:00,65.6,52.2,29.91,SW,232,5.0,8.0,62,0.00,,,0.02,Wunderground v.1.15,2013-05-12 14:19:00,
2013-05-12 10:21:00,65.4,52.5,29.91,SW,226,4.0,4.0,63,0.00,,,0.02,Wunderground v.1.15,2013-05-12 14:21:00,
2013-05-12 10:22:00,65.0,52.1,29.91,WSW,238,1.0,5.0,63,0.00,,,0.02,Wunderground v.1.15,2013-05-12 14:22:00,
2013-05-12 10:24:00,64.9,52.4,29.91,SW,217,2.0,5.0,64,0.00,,,0.02,Wunderground v.1.15,2013-05-12 14:24:00,
2013-05-12 10:26:00,64.9,52.8,29.91,SW,228,4.0,5.0,65,0.00,,,0.02,Wunderground v.1.15,2013-05-12 14:26:00,
2013-05-12 10:28:00,65.1,53.5,29.91,North,6,4.0,6.0,66,0.00,,,0.02,Wunderground v.1.15,2013-05-12 14:28:00,
2013-05-12 10:30:00,65.2,51.8,29.90,ENE,71,4.0,4.0,62,0.00,,,0.02,Wunderground v.1.15,2013-05-12 14:30:00,
2013-05-12 10:31:00,65.2,51.8,29.90,East,91,3.0,4.0,62,0.00,,,0.02,Wunderground v.1.15,2013-05-12 14:31:00,
2013-05-12 10:33:00,65.2,52.3,29.90,WSW,250,2.0,4.0,63,0.00,,,0.02,Wunderground v.1.15,2013-05-12 14:33:00,
2013-05-12 10:35:00,65.5,52.1,29.90,WSW,254,3.0,5.0,62,0.00,,,0.02,Wunderground v.1.15,2013-05-12 14:35:00,
2013-05-12 10:36:00,65.5,52.1,29.90,SW,221,3.0,5.0,62,0.00,,,0.02,Wunderground v.1.15,2013-05-12 14:36:00,
2013-05-12 10:38:00,65.8,52.4,29.90,SW,232,2.0,6.0,62,0.00,,,0.02,Wunderground v.1.15,2013-05-12 14:38:00,
2013-05-12 10:41:00,66.2,51.4,29.90,ESE,104,1.0,6.0,59,0.00,,,0.02,Wunderground v.1.15,2013-05-12 14:41:00,
2013-05-12 10:42:00,66.3,52.9,29.90,South,177,1.0,6.0,62,0.00,,,0.02,Wunderground v.1.15,2013-05-12 14:42:00,
2013-05-12 10:43:00,66.4,51.6,29.90,West,276,2.0,6.0,59,0.00,,,0.02,Wunderground v.1.15,2013-05-12 14:43:00,
2013-05-12 10:44:00,66.5,51.7,29.90,West,266,1.0,6.0,59,0.00,,,0.02,Wunderground v.1.15,2013-05-12 14:44:00,
2013-05-12 10:46:00,66.6,52.7,29.90,West,262,2.0,6.0,61,0.00,,,0.02,Wunderground v.1.15,2013-05-12 14:46:00,
2013-05-12 10:47:00,66.7,53.7,29.90,NW,324,2.0,6.0,63,0.00,,,0.02,Wunderground v.1.15,2013-05-12 14:47:00,
2013-05-12 10:48:00,66.9,52.6,29.90,SW,217,2.0,6.0,60,0.00,,,0.02,Wunderground v.1.15,2013-05-12 14:48:00,
2013-05-12 10:49:00,66.9,52.6,29.90,WNW,285,3.0,6.0,60,0.00,,,0.02,Wunderground v.1.15,2013-05-12 14:49:00,
2013-05-12 10:51:00,67.1,50.9,29.90,SW,221,2.0,5.0,56,0.00,,,0.02,Wunderground v.1.15,2013-05-12 14:51:00,
2013-05-12 10:52:00,67.2,50.5,29.90,West,281,1.0,5.0,55,0.00,,,0.02,Wunderground v.1.15,2013-05-12 14:52:00,
2013-05-12 10:53:00,67.3,51.1,29.90,SSW,203,3.0,5.0,56,0.00,,,0.02,Wunderground v.1.15,2013-05-12 14:53:00,
2013-05-12 10:54:00,67.4,50.7,29.90,WNW,300,3.0,5.0,55,0.00,,,0.02,Wunderground v.1.15,2013-05-12 14:54:00,
2013-05-12 10:56:00,67.2,49.5,29.90,SW,226,7.0,7.0,53,0.00,,,0.02,Wunderground v.1.15,2013-05-12 14:56:00,
2013-05-12 10:57:00,67.0,48.3,29.90,West,271,3.0,10.0,51,0.00,,,0.02,Wunderground v.1.15,2013-05-12 14:57:00,
2013-05-12 10:59:00,66.7,48.5,29.90,West,274,3.0,10.0,52,0.00,,,0.02,Wunderground v.1.15,2013-05-12 14:59:00,
2013-05-12 11:00:00,66.6,48.4,29.90,WSW,250,3.0,3.0,52,0.00,,,0.02,Wunderground v.1.15,2013-05-12 15:00:00,
2013-05-12 11:01:00,66.5,49.3,29.90,SSW,206,2.0,7.0,54,0.00,,,0.02,Wunderground v.1.15,2013-05-12 15:01:00,
2013-05-12 11:02:00,66.6,49.4,29.90,NNE,30,4.0,7.0,54,0.00,,,0.02,Wunderground v.1.15,2013-05-12 15:02:00,
2013-05-12 11:04:00,66.8,49.6,29.90,NW,305,1.0,8.0,54,0.00,,,0.02,Wunderground v.1.15,2013-05-12 15:04:00,
2013-05-12 11:05:00,66.9,49.7,29.90,NW,305,1.0,8.0,54,0.00,,,0.02,Wunderground v.1.15,2013-05-12 15:05:00,
2013-05-12 11:06:00,67.0,49.8,29.90,SW,235,8.0,8.0,54,0.00,,,0.02,Wunderground v.1.15,2013-05-12 15:06:00,
2013-05-12 11:07:00,67.0,49.8,29.90,SW,228,5.0,8.0,54,0.00,,,0.02,Wunderground v.1.15,2013-05-12 15:07:00,
2013-05-12 11:10:00,66.9,49.7,29.90,WNW,290,3.0,4.0,54,0.00,,,0.02,Wunderground v.1.15,2013-05-12 15:10:00,
2013-05-12 11:12:00,66.9,50.7,29.90,WSW,255,2.0,4.0,56,0.00,,,0.02,Wunderground v.1.15,2013-05-12 15:12:00,
2013-05-12 11:13:00,67.0,49.8,29.90,SW,235,8.0,10.0,54,0.00,,,0.02,Wunderground v.1.15,2013-05-12 15:13:00,
2013-05-12 11:15:00,66.9,50.2,29.90,WSW,237,8.0,10.0,55,0.00,,,0.02,Wunderground v.1.15,2013-05-12 15:15:00,
2013-05-12 11:16:00,66.9,50.2,29.90,SW,232,2.0,10.0,55,0.00,,,0.02,Wunderground v.1.15,2013-05-12 15:16:00,
2013-05-12 11:17:00,66.9,51.2,29.90,SW,215,6.0,10.0,57,0.00,,,0.02,Wunderground v.1.15,2013-05-12 15:17:00,
2013-05-12 11:19:00,67.2,50.5,29.91,SW,219,8.0,10.0,55,0.00,,,0.02,Wunderground v.1.15,2013-05-12 15:19:00,
2013-05-12 11:20:00,67.4,50.7,29.91,WSW,238,4.0,4.0,55,0.00,,,0.02,Wunderground v.1.15,2013-05-12 15:20:00,
2013-05-12 11:21:00,67.4,50.7,29.91,WSW,238,5.0,6.0,55,0.00,,,0.02,Wunderground v.1.15,2013-05-12 15:21:00,
2013-05-12 11:22:00,67.4,50.2,29.91,East,83,4.0,6.0,54,0.00,,,0.02,Wunderground v.1.15,2013-05-12 15:22:00,
2013-05-12 11:24:00,67.4,51.2,29.91,WSW,239,2.0,6.0,56,0.00,,,0.02,Wunderground v.1.15,2013-05-12 15:24:00,
2013-05-12 11:25:00,67.4,50.2,29.91,SW,229,2.0,6.0,54,0.00,,,0.02,Wunderground v.1.15,2013-05-12 15:25:00,
2013-05-12 11:26:00,67.3,50.1,29.91,West,281,1.0,6.0,54,0.00,,,0.02,Wunderground v.1.15,2013-05-12 15:26:00,
2013-05-12 11:27:00,67.1,50.9,29.91,NNE,20,2.0,6.0,56,0.00,,,0.02,Wunderground v.1.15,2013-05-12 15:27:00,
2013-05-12 11:28:00,67.0,50.8,29.91,NW,307,1.0,6.0,56,0.00,,,0.02,Wunderground v.1.15,2013-05-12 15:28:00,
2013-05-12 11:29:00,66.7,51.5,29.91,ESE,103,1.0,6.0,58,0.00,,,0.02,Wunderground v.1.15,2013-05-12 15:29:00,
2013-05-12 11:30:00,66.4,51.6,29.91,East,82,3.0,3.0,59,0.00,,,0.02,Wunderground v.1.15,2013-05-12 15:30:00,
2013-05-12 11:31:00,66.2,51.4,29.91,WSW,250,1.0,3.0,59,0.00,,,0.02,Wunderground v.1.15,2013-05-12 15:31:00,
2013-05-12 11:32:00,66.0,52.2,29.90,West,267,2.0,3.0,61,0.00,,,0.02,Wunderground v.1.15,2013-05-12 15:32:00,
2013-05-12 11:33:00,66.0,52.2,29.90,West,271,2.0,3.0,61,0.00,,,0.02,Wunderground v.1.15,2013-05-12 15:33:00,
2013-05-12 11:35:00,65.9,53.8,29.90,ENE,67,1.0,3.0,65,0.00,,,0.02,Wunderground v.1.15,2013-05-12 15:35:00,
2013-05-12 11:37:00,66.1,52.7,29.91,ENE,68,4.0,4.0,62,0.00,,,0.02,Wunderground v.1.15,2013-05-12 15:37:00,
2013-05-12 11:38:00,66.1,51.8,29.91,ESE,103,1.0,6.0,60,0.00,,,0.02,Wunderground v.1.15,2013-05-12 15:38:00,
2013-05-12 11:40:00,66.0,51.7,29.91,North,1,2.0,2.0,60,0.00,,,0.02,Wunderground v.1.15,2013-05-12 15:40:00,
2013-05-12 11:42:00,65.9,52.1,29.90,ENE,64,1.0,5.0,61,0.00,,,0.02,Wunderground v.1.15,2013-05-12 15:42:00,
2013-05-12 11:43:00,65.8,52.9,29.90,ENE,65,2.0,5.0,63,0.00,,,0.02,Wunderground v.1.15,2013-05-12 15:43:00,
2013-05-12 11:45:00,65.6,51.3,29.90,NW,308,1.0,5.0,60,0.00,,,0.02,Wunderground v.1.15,2013-05-12 15:45:00,
2013-05-12 11:46:00,65.5,52.1,29.90,ENE,60,1.0,5.0,62,0.00,,,0.02,Wunderground v.1.15,2013-05-12 15:46:00,
2013-05-12 11:48:00,65.4,52.0,29.90,ENE,70,1.0,5.0,62,0.00,,,0.02,Wunderground v.1.15,2013-05-12 15:48:00,
2013-05-12 11:49:00,65.3,51.5,29.90,ENE,70,0.0,5.0,61,0.00,,,0.02,Wunderground v.1.15,2013-05-12 15:49:00,
2013-05-12 11:50:00,65.5,53.0,29.91,West,280,1.0,1.0,64,0.00,,,0.02,Wunderground v.1.15,2013-05-12 15:50:00,
2013-05-12 11:51:00,65.5,53.0,29.91,West,281,1.0,1.0,64,0.00,,,0.02,Wunderground v.1.15,2013-05-12 15:51:00,
2013-05-12 11:53:00,65.8,52.4,29.91,NNE,16,1.0,3.0,62,0.00,,,0.02,Wunderground v.1.15,2013-05-12 15:53:00,
2013-05-12 11:54:00,65.9,52.5,29.91,ENE,61,3.0,3.0,62,0.00,,,0.02,Wunderground v.1.15,2013-05-12 15:54:00,
2013-05-12 11:55:00,66.1,52.3,29.91,West,266,1.0,4.0,61,0.00,,,0.02,Wunderground v.1.15,2013-05-12 15:55:00,
2013-05-12 11:56:00,66.2,55.3,29.91,WNW,289,2.0,4.0,68,0.00,,,0.02,Wunderground v.1.15,2013-05-12 15:56:00,
2013-05-12 11:59:00,66.5,50.8,29.91,South,169,1.0,4.0,57,0.00,,,0.02,Wunderground v.1.15,2013-05-12 15:59:00,
2013-05-12 12:00:00,66.7,51.0,29.91,SW,224,1.0,2.0,57,0.00,,,0.02,Wunderground v.1.15,2013-05-12 16:00:00,
2013-05-12 12:01:00,66.8,51.1,29.91,SW,224,0.0,2.0,57,0.00,,,0.02,Wunderground v.1.15,2013-05-12 16:01:00,
2013-05-12 12:04:00,67.2,51.4,29.91,NE,53,1.0,2.0,57,0.00,,,0.02,Wunderground v.1.15,2013-05-12 16:04:00,
2013-05-12 12:05:00,67.3,51.5,29.91,NE,53,0.0,2.0,57,0.00,,,0.02,Wunderground v.1.15,2013-05-12 16:05:00,
2013-05-12 12:06:00,67.4,53.5,29.91,SW,233,2.0,2.0,61,0.00,,,0.02,Wunderground v.1.15,2013-05-12 16:06:00,
2013-05-12 12:07:00,67.5,52.7,29.91,WSW,257,3.0,5.0,59,0.00,,,0.02,Wunderground v.1.15,2013-05-12 16:07:00,
2013-05-12 12:09:00,67.5,52.2,29.91,West,275,3.0,5.0,58,0.00,,,0.02,Wunderground v.1.15,2013-05-12 16:09:00,
2013-05-12 12:10:00,67.4,50.2,29.91,WNW,290,0.0,1.0,54,0.00,,,0.02,Wunderground v.1.15,2013-05-12 16:10:00,
2013-05-12 12:11:00,67.3,50.1,29.91,SE,135,2.0,2.0,54,0.00,,,0.02,Wunderground v.1.15,2013-05-12 16:11:00,
2013-05-12 12:12:00,67.1,50.9,29.91,South,181,1.0,2.0,56,0.00,,,0.02,Wunderground v.1.15,2013-05-12 16:12:00,
2013-05-12 12:14:00,66.9,51.2,29.91,West,267,1.0,2.0,57,0.00,,,0.02,Wunderground v.1.15,2013-05-12 16:14:00,
2013-05-12 12:15:00,66.9,50.7,29.91,West,278,1.0,2.0,56,0.00,,,0.02,Wunderground v.1.15,2013-05-12 16:15:00,
2013-05-12 12:16:00,67.0,51.7,29.91,SW,225,1.0,3.0,58,0.00,,,0.02,Wunderground v.1.15,2013-05-12 16:16:00,
2013-05-12 12:17:00,66.9,51.6,29.91,East,99,1.0,3.0,58,0.00,,,0.02,Wunderground v.1.15,2013-05-12 16:17:00,
2013-05-12 12:20:00,67.0,51.7,29.91,WSW,257,1.0,2.0,58,0.00,,,0.02,Wunderground v.1.15,2013-05-12 16:20:00,
2013-05-12 12:21:00,67.1,50.4,29.91,WNW,286,2.0,4.0,55,0.00,,,0.02,Wunderground v.1.15,2013-05-12 16:21:00,
2013-05-12 12:22:00,67.1,50.9,29.91,SSW,203,0.0,4.0,56,0.00,,,0.02,Wunderground v.1.15,2013-05-12 16:22:00,
2013-05-12 12:25:00,67.4,50.2,29.91,SSE,158,2.0,4.0,54,0.00,,,0.02,Wunderground v.1.15,2013-05-12 16:25:00,
2013-05-12 12:26:00,67.4,49.7,29.91,South,183,2.0,4.0,53,0.00,,,0.02,Wunderground v.1.15,2013-05-12 16:26:00,
2013-05-12 12:27:00,67.4,49.7,29.91,South,173,1.0,4.0,53,0.00,,,0.02,Wunderground v.1.15,2013-05-12 16:27:00,
2013-05-12 12:30:00,67.5,50.3,29.91,WSW,253,2.0,5.0,54,0.00,,,0.02,Wunderground v.1.15,2013-05-12 16:30:00,
2013-05-12 12:31:00,67.5,50.3,29.91,WSW,256,3.0,5.0,54,0.00,,,0.02,Wunderground v.1.15,2013-05-12 16:31:00,
2013-05-12 12:32:00,67.4,49.7,29.91,SW,235,2.0,5.0,53,0.00,,,0.02,Wunderground v.1.15,2013-05-12 16:32:00,
2013-05-12 12:33:00,67.4,50.2,29.91,SW,229,3.0,5.0,54,0.00,,,0.02,Wunderground v.1.15,2013-05-12 16:33:00,
2013-05-12 12:35:00,67.0,50.8,29.91,SW,229,2.0,8.0,56,0.00,,,0.02,Wunderground v.1.15,2013-05-12 16:35:00,
2013-05-12 12:36:00,67.0,50.8,29.91,SSW,198,4.0,8.0,56,0.00,,,0.02,Wunderground v.1.15,2013-05-12 16:36:00,
2013-05-12 12:37:00,66.8,50.1,29.91,SW,229,3.0,8.0,55,0.00,,,0.02,Wunderground v.1.15,2013-05-12 16:37:00,
2013-05-12 12:38:00,66.6,49.9,29.91,SW,235,3.0,8.0,55,0.00,,,0.02,Wunderground v.1.15,2013-05-12 16:38:00,
2013-05-12 12:41:00,66.1,50.4,29.91,SW,224,5.0,5.0,57,0.00,,,0.02,Wunderground v.1.15,2013-05-12 16:41:00,
2013-05-12 12:42:00,65.9,51.2,29.91,WSW,256,0.0,5.0,59,0.00,,,0.02,Wunderground v.1.15,2013-05-12 16:42:00,
2013-05-12 12:43:00,65.8,50.6,29.91,WSW,246,1.0,5.0,58,0.00,,,0.02,Wunderground v.1.15,2013-05-12 16:43:00,
2013-05-12 12:46:00,66.0,51.3,29.91,SSW,212,0.0,5.0,59,0.00,,,0.02,Wunderground v.1.15,2013-05-12 16:46:00,
2013-05-12 12:48:00,66.3,51.1,29.91,NE,48,3.0,5.0,58,0.00,,,0.02,Wunderground v.1.15,2013-05-12 16:48:00,
2013-05-12 12:51:00,67.0,51.7,29.91,WSW,237,6.0,6.0,58,0.00,,,0.02,Wunderground v.1.15,2013-05-12 16:51:00,
2013-05-12 12:52:00,67.1,51.4,29.91,SW,225,5.0,10.0,57,0.00,,,0.02,Wunderground v.1.15,2013-05-12 16:52:00,
2013-05-12 12:53:00,67.3,50.6,29.91,WSW,238,1.0,10.0,55,0.00,,,0.02,Wunderground v.1.15,2013-05-12 16:53:00,
2013-05-12 12:56:00,67.6,50.9,29.91,SW,225,2.0,10.0,55,0.00,,,0.02,Wunderground v.1.15,2013-05-12 16:56:00,
2013-05-12 12:57:00,67.8,51.0,29.91,WSW,256,5.0,10.0,55,0.00,,,0.02,Wunderground v.1.15,2013-05-12 16:57:00,
2013-05-12 12:58:00,67.9,52.1,29.91,WSW,250,1.0,10.0,57,0.00,,,0.02,Wunderground v.1.15,2013-05-12 16:58:00,
2013-05-12 12:59:00,68.1,52.3,29.91,WSW,238,2.0,10.0,57,0.00,,,0.02,Wunderground v.1.15,2013-05-12 16:59:00,
2013-05-12 13:02:00,68.6,50.8,29.91,SW,229,6.0,6.0,53,0.00,,,0.02,Wunderground v.1.15,2013-05-12 17:02:00,
2013-05-12 13:03:00,68.8,50.5,29.91,ESE,110,5.0,6.0,52,0.00,,,0.02,Wunderground v.1.15,2013-05-12 17:03:00,
2013-05-12 13:04:00,68.8,49.9,29.91,NE,47,5.0,6.0,51,0.00,,,0.02,Wunderground v.1.15,2013-05-12 17:04:00,
2013-05-12 13:07:00,68.9,51.1,29.91,South,188,3.0,7.0,53,0.00,,,0.02,Wunderground v.1.15,2013-05-12 17:07:00,
2013-05-12 13:08:00,68.9,50.0,29.91,SSW,201,6.0,13.0,51,0.00,,,0.02,Wunderground v.1.15,2013-05-12 17:08:00,
2013-05-12 13:10:00,69.0,50.1,29.91,South,175,4.0,4.0,51,0.00,,,0.02,Wunderground v.1.15,2013-05-12 17:10:00,
2013-05-12 13:12:00,69.0,49.0,29.91,SW,222,5.0,7.0,49,0.00,,,0.02,Wunderground v.1.15,2013-05-12 17:12:00,
2013-05-12 13:13:00,68.9,47.8,29.91,SW,218,6.0,8.0,47,0.00,,,0.02,Wunderground v.1.15,2013-05-12 17:13:00,
2013-05-12 13:14:00,68.9,49.5,29.91,WSW,249,1.0,8.0,50,0.00,,,0.02,Wunderground v.1.15,2013-05-12 17:14:00,
2013-05-12 13:15:00,69.0,47.9,29.91,SW,228,5.0,8.0,47,0.00,,,0.02,Wunderground v.1.15,2013-05-12 17:15:00,
2013-05-12 13:17:00,69.1,48.0,29.91,WSW,246,1.0,9.0,47,0.00,,,0.02,Wunderground v.1.15,2013-05-12 17:17:00,
2013-05-12 13:18:00,69.1,48.6,29.91,West,276,0.0,9.0,48,0.00,,,0.02,Wunderground v.1.15,2013-05-12 17:18:00,
2013-05-12 13:19:00,69.2,48.7,29.91,West,275,0.0,9.0,48,0.00,,,0.02,Wunderground v.1.15,2013-05-12 17:19:00,
2013-05-12 13:20:00,69.3,49.9,29.91,SW,218,4.0,6.0,50,0.00,,,0.02,Wunderground v.1.15,2013-05-12 17:20:00,
2013-05-12 13:22:00,69.2,46.9,29.91,ENE,63,2.0,6.0,45,0.00,,,0.02,Wunderground v.1.15,2013-05-12 17:22:00,
2013-05-12 13:23:00,69.1,46.9,29.91,North,1,2.0,6.0,45,0.00,,,0.02,Wunderground v.1.15,2013-05-12 17:23:00,
2013-05-12 13:24:00,69.0,47.9,29.91,North,5,2.0,6.0,47,0.00,,,0.02,Wunderground v.1.15,2013-05-12 17:24:00,
2013-05-12 13:26:00,68.8,48.9,29.91,SW,232,1.0,6.0,49,0.00,,,0.02,Wunderground v.1.15,2013-05-12 17:26:00,
2013-05-12 13:27:00,68.9,50.0,29.91,West,259,2.0,6.0,51,0.00,,,0.02,Wunderground v.1.15,2013-05-12 17:27:00,
2013-05-12 13:28:00,68.9,48.9,29.91,WSW,243,3.0,6.0,49,0.00,,,0.02,Wunderground v.1.15,2013-05-12 17:28:00,
2013-05-12 13:29:00,69.0,47.9,29.91,SW,225,3.0,6.0,47,0.00,,,0.02,Wunderground v.1.15,2013-05-12 17:29:00,
2013-05-12 13:31:00,69.0,46.2,29.91,WNW,297,2.0,7.0,44,0.00,,,0.02,Wunderground v.1.15,2013-05-12 17:31:00,
2013-05-12 13:32:00,69.0,46.8,29.91,WSW,237,4.0,8.0,45,0.00,,,0.02,Wunderground v.1.15,2013-05-12 17:32:00,
2013-05-12 13:33:00,68.9,46.7,29.91,SW,229,3.0,11.0,45,0.00,,,0.02,Wunderground v.1.15,2013-05-12 17:33:00,
2013-05-12 13:34:00,68.9,47.3,29.91,WSW,240,2.0,11.0,46,0.00,,,0.02,Wunderground v.1.15,2013-05-12 17:34:00,
2013-05-12 13:36:00,69.0,47.9,29.91,NW,308,0.0,11.0,47,0.00,,,0.02,Wunderground v.1.15,2013-05-12 17:36:00,
2013-05-12 13:37:00,69.1,48.0,29.91,ENE,65,6.0,11.0,47,0.00,,,0.02,Wunderground v.1.15,2013-05-12 17:37:00,
2013-05-12 13:38:00,69.1,45.7,29.91,WSW,241,2.0,11.0,43,0.00,,,0.02,Wunderground v.1.15,2013-05-12 17:38:00,
2013-05-12 13:39:00,69.0,45.6,29.91,SW,232,1.0,11.0,43,0.00,,,0.02,Wunderground v.1.15,2013-05-12 17:39:00,
2013-05-12 13:40:00,68.9,44.2,29.91,WSW,257,4.0,4.0,41,0.00,,,0.02,Wunderground v.1.15,2013-05-12 17:40:00,
2013-05-12 13:41:00,68.8,44.8,29.91,SSW,205,6.0,9.0,42,0.00,,,0.02,Wunderground v.1.15,2013-05-12 17:41:00,
2013-05-12 13:43:00,68.6,46.4,29.91,SW,219,7.0,9.0,45,0.00,,,0.02,Wunderground v.1.15,2013-05-12 17:43:00,
2013-05-12 13:44:00,68.5,46.3,29.91,SW,222,6.0,9.0,45,0.00,,,0.02,Wunderground v.1.15,2013-05-12 17:44:00,
2013-05-12 13:45:00,68.3,46.1,29.91,WSW,240,4.0,9.0,45,0.00,,,0.02,Wunderground v.1.15,2013-05-12 17:45:00,
2013-05-12 13:46:00,68.2,46.6,29.91,SW,215,5.0,9.0,46,0.00,,,0.02,Wunderground v.1.15,2013-05-12 17:46:00,
2013-05-12 13:48:00,68.1,47.7,29.91,SW,219,3.0,9.0,48,0.00,,,0.02,Wunderground v.1.15,2013-05-12 17:48:00,
2013-05-12 13:49:00,68.1,47.1,29.91,West,260,4.0,9.0,47,0.00,,,0.02,Wunderground v.1.15,2013-05-12 17:49:00,
2013-05-12 13:50:00,68.1,45.9,29.91,SSW,207,5.0,5.0,45,0.00,,,0.02,Wunderground v.1.15,2013-05-12 17:50:00,
2013-05-12 13:51:00,68.0,45.3,29.91,SW,226,7.0,8.0,44,0.00,,,0.02,Wunderground v.1.15,2013-05-12 17:51:00,
2013-05-12 13:53:00,67.7,45.0,29.91,WNW,287,2.0,8.0,44,0.00,,,0.02,Wunderground v.1.15,2013-05-12 17:53:00,
2013-05-12 13:54:00,67.6,45.5,29.91,WNW,287,2.0,8.0,45,0.00,,,0.02,Wunderground v.1.15,2013-05-12 17:54:00,
2013-05-12 13:55:00,67.6,47.2,29.91,East,89,1.0,8.0,48,0.00,,,0.02,Wunderground v.1.15,2013-05-12 17:55:00,
2013-05-12 13:56:00,67.7,47.3,29.91,WNW,283,1.0,8.0,48,0.00,,,0.02,Wunderground v.1.15,2013-05-12 17:56:00,
2013-05-12 13:59:00,67.8,45.7,29.91,SSW,211,2.0,8.0,45,0.00,,,0.02,Wunderground v.1.15,2013-05-12 17:59:00,
2013-05-12 14:00:00,68.0,44.7,29.91,SSW,212,3.0,8.0,43,0.00,,,0.02,Wunderground v.1.15,2013-05-12 18:00:00,
2013-05-12 14:01:00,68.0,46.4,29.91,WSW,239,6.0,8.0,46,0.00,,,0.02,Wunderground v.1.15,2013-05-12 18:01:00,
2013-05-12 14:02:00,68.2,46.6,29.91,WSW,253,2.0,8.0,46,0.00,,,0.02,Wunderground v.1.15,2013-05-12 18:02:00,
2013-05-12 14:04:00,68.5,46.9,29.91,SW,214,2.0,8.0,46,0.00,,,0.02,Wunderground v.1.15,2013-05-12 18:04:00,
2013-05-12 14:06:00,68.9,48.9,29.91,SSE,148,3.0,8.0,49,0.00,,,0.02,Wunderground v.1.15,2013-05-12 18:06:00,
2013-05-12 14:07:00,69.0,47.9,29.91,SW,218,2.0,8.0,47,0.00,,,0.02,Wunderground v.1.15,2013-05-12 18:07:00,
2013-05-12 14:09:00,69.4,47.7,29.91,ENE,68,5.0,8.0,46,0.00,,,0.02,Wunderground v.1.15,2013-05-12 18:09:00,
2013-05-12 14:11:00,69.6,46.1,29.91,NW,322,5.0,7.0,43,0.00,,,0.02,Wunderground v.1.15,2013-05-12 18:11:00,
2013-05-12 14:12:00,69.7,47.4,29.91,East,79,5.0,7.0,45,0.00,,,0.02,Wunderground v.1.15,2013-05-12 18:12:00,
2013-05-12 14:14:00,69.9,48.2,29.91,ESE,104,2.0,8.0,46,0.00,,,0.02,Wunderground v.1.15,2013-05-12 18:14:00,
2013-05-12 14:15:00,69.9,48.2,29.91,SE,143,2.0,8.0,46,0.00,,,0.02,Wunderground v.1.15,2013-05-12 18:15:00,
2013-05-12 14:16:00,70.2,47.9,29.91,West,274,4.0,8.0,45,0.00,,,0.02,Wunderground v.1.15,2013-05-12 18:16:00,
2013-05-12 14:17:00,70.2,47.9,29.91,SW,231,6.0,8.0,45,0.00,,,0.02,Wunderground v.1.15,2013-05-12 18:17:00,
2013-05-12 14:20:00,70.2,44.1,29.91,NW,309,3.0,4.0,39,0.00,,,0.02,Wunderground v.1.15,2013-05-12 18:20:00,
2013-05-12 14:21:00,70.1,45.3,29.91,East,86,7.0,8.0,41,0.00,,,0.02,Wunderground v.1.15,2013-05-12 18:21:00,
2013-05-12 14:22:00,70.1,45.3,29.91,West,277,1.0,8.0,41,0.00,,,0.02,Wunderground v.1.15,2013-05-12 18:22:00,
2013-05-12 14:23:00,70.1,44.6,29.91,WSW,242,2.0,8.0,40,0.00,,,0.02,Wunderground v.1.15,2013-05-12 18:23:00,
2013-05-12 14:25:00,70.0,45.8,29.91,WSW,238,4.0,8.0,42,0.00,,,0.02,Wunderground v.1.15,2013-05-12 18:25:00,
2013-05-12 14:26:00,69.9,45.8,29.91,WSW,246,5.0,8.0,42,0.00,,,0.02,Wunderground v.1.15,2013-05-12 18:26:00,
2013-05-12 14:27:00,69.9,45.8,29.91,SW,231,6.0,8.0,42,0.00,,,0.02,Wunderground v.1.15,2013-05-12 18:27:00,
2013-05-12 14:28:00,69.8,45.0,29.91,West,281,3.0,8.0,41,0.00,,,0.02,Wunderground v.1.15,2013-05-12 18:28:00,
2013-05-12 14:30:00,69.6,45.5,29.91,SE,124,3.0,3.0,42,0.00,,,0.02,Wunderground v.1.15,2013-05-12 18:30:00,
2013-05-12 14:32:00,69.6,46.1,29.91,WNW,285,2.0,3.0,43,0.00,,,0.02,Wunderground v.1.15,2013-05-12 18:32:00,
2013-05-12 14:34:00,69.8,45.7,29.91,WNW,291,1.0,7.0,42,0.00,,,0.02,Wunderground v.1.15,2013-05-12 18:34:00,
2013-05-12 14:35:00,69.9,46.4,29.91,NNE,32,2.0,7.0,43,0.00,,,0.02,Wunderground v.1.15,2013-05-12 18:35:00,
2013-05-12 14:37:00,70.2,49.0,29.91,West,267,2.0,7.0,47,0.00,,,0.02,Wunderground v.1.15,2013-05-12 18:37:00,
2013-05-12 14:38:00,70.4,48.6,29.91,WSW,243,4.0,7.0,46,0.00,,,0.02,Wunderground v.1.15,2013-05-12 18:38:00,
2013-05-12 14:40:00,70.4,46.2,29.91,West,267,3.0,7.0,42,0.00,,,0.02,Wunderground v.1.15,2013-05-12 18:40:00,
2013-05-12 14:42:00,70.2,44.7,29.91,SW,229,8.0,9.0,40,0.00,,,0.02,Wunderground v.1.15,2013-05-12 18:42:00,
2013-05-12 14:43:00,70.1,43.3,29.90,SW,218,4.0,9.0,38,0.00,,,0.02,Wunderground v.1.15,2013-05-12 18:43:00,
2013-05-12 14:45:00,69.9,43.8,29.91,WSW,240,7.0,9.0,39,0.00,,,0.02,Wunderground v.1.15,2013-05-12 18:45:00,
2013-05-12 14:46:00,69.8,44.4,29.90,SSW,205,2.0,12.0,40,0.00,,,0.02,Wunderground v.1.15,2013-05-12 18:46:00,
2013-05-12 14:48:00,69.8,44.4,29.91,WSW,253,1.0,12.0,40,0.00,,,0.02,Wunderground v.1.15,2013-05-12 18:48:00,
2013-05-12 14:49:00,69.9,45.8,29.91,SW,224,3.0,12.0,42,0.00,,,0.02,Wunderground v.1.15,2013-05-12 18:49:00,
2013-05-12 14:50:00,70.0,45.8,29.91,South,181,2.0,6.0,42,0.00,,,0.02,Wunderground v.1.15,2013-05-12 18:50:00,
2013-05-12 14:51:00,70.0,45.8,29.91,SSW,212,2.0,6.0,42,0.00,,,0.02,Wunderground v.1.15,2013-05-12 18:51:00,
2013-05-12 14:54:00,70.0,44.6,29.91,SW,218,2.0,6.0,40,0.00,,,0.02,Wunderground v.1.15,2013-05-12 18:54:00,
2013-05-12 14:56:00,70.1,44.0,29.91,WSW,253,2.0,6.0,39,0.00,,,0.02,Wunderground v.1.15,2013-05-12 18:56:00,
2013-05-12 15:00:00,70.4,46.2,29.91,WSW,246,1.0,3.0,42,0.00,,,0.02,Wunderground v.1.15,2013-05-12 19:00:00,
2013-05-12 15:01:00,70.5,46.3,29.91,WSW,242,2.0,5.0,42,0.00,,,0.02,Wunderground v.1.15,2013-05-12 19:01:00,
2013-05-12 15:05:00,70.6,45.1,29.91,NNE,25,4.0,5.0,40,0.00,,,0.02,Wunderground v.1.15,2013-05-12 19:05:00,
2013-05-12 15:06:00,70.6,45.1,29.91,NE,35,4.0,6.0,40,0.00,,,0.02,Wunderground v.1.15,2013-05-12 19:06:00,
2013-05-12 15:11:00,70.3,46.1,29.91,NNW,329,1.0,3.0,42,0.00,,,0.02,Wunderground v.1.15,2013-05-12 19:11:00,
2013-05-12 15:16:00,70.3,43.5,29.91,NE,43,2.0,9.0,38,0.00,,,0.02,Wunderground v.1.15,2013-05-12 19:16:00,
2013-05-12 15:17:00,70.2,44.7,29.91,North,6,3.0,9.0,40,0.00,,,0.02,Wunderground v.1.15,2013-05-12 19:17:00,
2013-05-12 15:21:00,70.0,44.6,29.91,East,83,1.0,3.0,40,0.00,,,0.02,Wunderground v.1.15,2013-05-12 19:21:00,
2013-05-12 15:22:00,70.0,44.6,29.91,South,175,1.0,3.0,40,0.00,,,0.02,Wunderground v.1.15,2013-05-12 19:22:00,
2013-05-12 15:26:00,70.1,44.6,29.90,NNE,26,4.0,7.0,40,0.00,,,0.02,Wunderground v.1.15,2013-05-12 19:26:00,
2013-05-12 15:27:00,70.1,45.3,29.91,West,270,2.0,7.0,41,0.00,,,0.02,Wunderground v.1.15,2013-05-12 19:27:00,
2013-05-12 15:31:00,70.1,44.0,29.91,WNW,287,0.0,5.0,39,0.00,,,0.02,Wunderground v.1.15,2013-05-12 19:31:00,
2013-05-12 15:32:00,70.2,46.0,29.91,West,277,3.0,5.0,42,0.00,,,0.02,Wunderground v.1.15,2013-05-12 19:32:00,
2013-05-12 15:36:00,70.2,46.6,29.91,WSW,240,4.0,7.0,43,0.00,,,0.02,Wunderground v.1.15,2013-05-12 19:36:00,
2013-05-12 15:37:00,70.1,44.6,29.91,West,266,4.0,7.0,40,0.00,,,0.02,Wunderground v.1.15,2013-05-12 19:37:00,
2013-05-12 15:41:00,69.8,43.0,29.91,SW,218,8.0,9.0,38,0.00,,,0.02,Wunderground v.1.15,2013-05-12 19:41:00,
2013-05-12 15:42:00,69.7,41.5,29.91,SW,221,0.0,9.0,36,0.00,,,0.02,Wunderground v.1.15,2013-05-12 19:42:00,
2013-05-12 15:43:00,69.6,42.9,29.91,East,82,3.0,9.0,38,0.00,,,0.02,Wunderground v.1.15,2013-05-12 19:43:00,
2013-05-12 15:46:00,69.5,43.4,29.91,ESE,110,2.0,9.0,39,0.00,,,0.02,Wunderground v.1.15,2013-05-12 19:46:00,
2013-05-12 15:47:00,69.4,41.3,29.90,SSE,168,1.0,9.0,36,0.00,,,0.02,Wunderground v.1.15,2013-05-12 19:47:00,
2013-05-12 15:48:00,69.4,41.3,29.90,SSW,194,2.0,9.0,36,0.00,,,0.02,Wunderground v.1.15,2013-05-12 19:48:00,
2013-05-12 15:51:00,69.3,42.6,29.90,SW,230,2.0,4.0,38,0.00,,,0.02,Wunderground v.1.15,2013-05-12 19:51:00,
2013-05-12 15:52:00,69.3,42.6,29.91,SSW,206,2.0,9.0,38,0.00,,,0.02,Wunderground v.1.15,2013-05-12 19:52:00,
2013-05-12 15:53:00,69.3,42.6,29.91,WSW,250,1.0,9.0,38,0.00,,,0.02,Wunderground v.1.15,2013-05-12 19:53:00,
2013-05-12 15:56:00,69.3,42.6,29.90,SSW,200,2.0,9.0,38,0.00,,,0.02,Wunderground v.1.15,2013-05-12 19:56:00,
2013-05-12 15:57:00,69.3,41.2,29.90,ENE,64,3.0,9.0,36,0.00,,,0.02,Wunderground v.1.15,2013-05-12 19:57:00,
2013-05-12 15:58:00,69.3,43.3,29.90,East,91,11.0,11.0,39,0.00,,,0.02,Wunderground v.1.15,2013-05-12 19:58:00,
2013-05-12 15:59:00,69.2,43.2,29.90,East,82,2.0,11.0,39,0.00,,,0.02,Wunderground v.1.15,2013-05-12 19:59:00,
2013-05-12 16:02:00,69.1,41.0,29.90,East,86,2.0,4.0,36,0.00,,,0.02,Wunderground v.1.15,2013-05-12 20:02:00,
2013-05-12 16:03:00,69.1,41.0,29.90,WNW,283,3.0,4.0,36,0.00,,,0.02,Wunderground v.1.15,2013-05-12 20:03:00,
2013-05-12 16:04:00,69.2,41.8,29.90,NNE,13,4.0,4.0,37,0.00,,,0.02,Wunderground v.1.15,2013-05-12 20:04:00,
2013-05-12 16:07:00,69.1,42.4,29.90,NNW,333,5.0,7.0,38,0.00,,,0.02,Wunderground v.1.15,2013-05-12 20:07:00,
2013-05-12 16:09:00,69.1,41.7,29.90,ENE,64,6.0,7.0,37,0.00,,,0.02,Wunderground v.1.15,2013-05-12 20:09:00,
2013-05-12 16:10:00,69.0,40.9,29.90,NE,40,5.0,5.0,36,0.00,,,0.02,Wunderground v.1.15,2013-05-12 20:10:00,
2013-05-12 16:13:00,68.9,43.6,29.90,West,273,2.0,6.0,40,0.00,,,0.02,Wunderground v.1.15,2013-05-12 20:13:00,
2013-05-12 16:14:00,68.9,41.5,29.90,ESE,118,1.0,6.0,37,0.00,,,0.02,Wunderground v.1.15,2013-05-12 20:14:00,
2013-05-12 16:15:00,69.0,41.6,29.90,NW,313,1.0,6.0,37,0.00,,,0.02,Wunderground v.1.15,2013-05-12 20:15:00,
2013-05-12 16:18:00,69.0,41.6,29.91,NE,52,5.0,6.0,37,0.00,,,0.02,Wunderground v.1.15,2013-05-12 20:18:00,
2013-05-12 16:19:00,68.9,40.8,29.91,WSW,239,1.0,6.0,36,0.00,,,0.02,Wunderground v.1.15,2013-05-12 20:19:00,
2013-05-12 16:20:00,68.9,40.8,29.91,SW,225,4.0,4.0,36,0.00,,,0.02,Wunderground v.1.15,2013-05-12 20:20:00,
2013-05-12 16:23:00,68.8,40.7,29.91,ENE,70,3.0,6.0,36,0.00,,,0.02,Wunderground v.1.15,2013-05-12 20:23:00,
2013-05-12 16:24:00,68.8,40.7,29.91,NNE,13,4.0,6.0,36,0.00,,,0.02,Wunderground v.1.15,2013-05-12 20:24:00,
2013-05-12 16:25:00,68.8,40.7,29.91,NW,305,1.0,6.0,36,0.00,,,0.02,Wunderground v.1.15,2013-05-12 20:25:00,
2013-05-12 16:28:00,68.7,41.4,29.91,West,260,2.0,6.0,37,0.00,,,0.02,Wunderground v.1.15,2013-05-12 20:28:00,
2013-05-12 16:29:00,68.7,42.1,29.91,West,267,2.0,6.0,38,0.00,,,0.02,Wunderground v.1.15,2013-05-12 20:29:00,
2013-05-12 16:30:00,68.7,42.1,29.91,NE,36,1.0,3.0,38,0.00,,,0.02,Wunderground v.1.15,2013-05-12 20:30:00,
2013-05-12 16:31:00,68.7,42.1,29.91,NNW,343,2.0,4.0,38,0.00,,,0.02,Wunderground v.1.15,2013-05-12 20:31:00,
2013-05-12 16:33:00,68.7,41.4,29.91,ENE,61,2.0,6.0,37,0.00,,,0.02,Wunderground v.1.15,2013-05-12 20:33:00,
2013-05-12 16:34:00,68.6,42.0,29.91,SE,139,4.0,6.0,38,0.00,,,0.02,Wunderground v.1.15,2013-05-12 20:34:00,
2013-05-12 16:35:00,68.6,40.6,29.91,East,79,2.0,6.0,36,0.00,,,0.02,Wunderground v.1.15,2013-05-12 20:35:00,
2013-05-12 16:36:00,68.5,41.9,29.91,SE,143,4.0,6.0,38,0.00,,,0.02,Wunderground v.1.15,2013-05-12 20:36:00,
2013-05-12 16:39:00,68.4,41.1,29.92,WSW,238,1.0,6.0,37,0.00,,,0.02,Wunderground v.1.15,2013-05-12 20:39:00,
2013-05-12 16:40:00,68.3,41.7,29.92,NE,36,3.0,3.0,38,0.00,,,0.02,Wunderground v.1.15,2013-05-12 20:40:00,
2013-05-12 16:41:00,68.2,39.5,29.91,NE,50,1.0,3.0,35,0.00,,,0.02,Wunderground v.1.15,2013-05-12 20:41:00,
2013-05-12 16:44:00,68.2,40.9,29.91,NW,316,1.0,3.0,37,0.00,,,0.02,Wunderground v.1.15,2013-05-12 20:44:00,
2013-05-12 16:45:00,68.2,40.2,29.91,WSW,246,1.0,3.0,36,0.00,,,0.02,Wunderground v.1.15,2013-05-12 20:45:00,
2013-05-12 16:46:00,68.1,41.5,29.91,ENE,70,1.0,6.0,38,0.00,,,0.02,Wunderground v.1.15,2013-05-12 20:46:00,
2013-05-12 16:50:00,68.2,38.7,29.91,NE,49,5.0,5.0,34,0.00,,,0.02,Wunderground v.1.15,2013-05-12 20:50:00,
2013-05-12 16:51:00,68.1,40.1,29.91,ESE,122,1.0,6.0,36,0.00,,,0.02,Wunderground v.1.15,2013-05-12 20:51:00,
2013-05-12 16:55:00,67.9,38.5,29.91,SW,228,6.0,6.0,34,0.00,,,0.02,Wunderground v.1.15,2013-05-12 20:55:00,
2013-05-12 16:56:00,67.8,39.9,29.91,ENE,75,3.0,6.0,36,0.00,,,0.02,Wunderground v.1.15,2013-05-12 20:56:00,
2013-05-12 17:00:00,67.7,39.0,29.91,NE,45,1.0,3.0,35,0.00,,,0.02,Wunderground v.1.15,2013-05-12 21:00:00,
2013-05-12 17:01:00,67.7,39.8,29.91,SW,236,2.0,3.0,36,0.00,,,0.02,Wunderground v.1.15,2013-05-12 21:01:00,
2013-05-12 17:02:00,67.7,39.0,29.91,WSW,255,2.0,6.0,35,0.00,,,0.02,Wunderground v.1.15,2013-05-12 21:02:00,
2013-05-12 17:05:00,67.6,39.7,29.91,WSW,255,1.0,6.0,36,0.00,,,0.02,Wunderground v.1.15,2013-05-12 21:05:00,
2013-05-12 17:06:00,67.6,39.7,29.91,SW,221,1.0,6.0,36,0.00,,,0.02,Wunderground v.1.15,2013-05-12 21:06:00,
2013-05-12 17:07:00,67.6,39.7,29.91,East,90,4.0,6.0,36,0.00,,,0.02,Wunderground v.1.15,2013-05-12 21:07:00,
2013-05-12 17:10:00,67.5,40.3,29.91,ESE,103,1.0,4.0,37,0.00,,,0.02,Wunderground v.1.15,2013-05-12 21:10:00,
2013-05-12 17:11:00,67.5,41.0,29.91,South,191,1.0,5.0,38,0.00,,,0.02,Wunderground v.1.15,2013-05-12 21:11:00,
2013-05-12 17:12:00,67.5,40.3,29.91,SW,219,5.0,5.0,37,0.00,,,0.02,Wunderground v.1.15,2013-05-12 21:12:00,
2013-05-12 17:15:00,67.5,39.6,29.91,WNW,287,4.0,6.0,36,0.00,,,0.02,Wunderground v.1.15,2013-05-12 21:15:00,
2013-05-12 17:16:00,67.4,39.5,29.91,SE,126,2.0,6.0,36,0.00,,,0.02,Wunderground v.1.15,2013-05-12 21:16:00,
2013-05-12 17:17:00,67.4,39.5,29.91,West,278,1.0,6.0,36,0.00,,,0.02,Wunderground v.1.15,2013-05-12 21:17:00,
2013-05-12 17:20:00,67.3,39.4,29.91,East,96,3.0,7.0,36,0.00,,,0.02,Wunderground v.1.15,2013-05-12 21:20:00,
2013-05-12 17:21:00,67.2,40.0,29.91,ENE,73,4.0,7.0,37,0.00,,,0.02,Wunderground v.1.15,2013-05-12 21:21:00,
2013-05-12 17:22:00,67.2,40.0,29.91,ENE,75,4.0,7.0,37,0.00,,,0.02,Wunderground v.1.15,2013-05-12 21:22:00,
2013-05-12 17:25:00,67.0,39.1,29.91,NW,311,2.0,7.0,36,0.00,,,0.02,Wunderground v.1.15,2013-05-12 21:25:00,
2013-05-12 17:26:00,67.0,37.7,29.91,West,279,1.0,7.0,34,0.00,,,0.02,Wunderground v.1.15,2013-05-12 21:26:00,
2013-05-12 17:27:00,67.0,37.7,29.91,WNW,290,1.0,7.0,34,0.00,,,0.02,Wunderground v.1.15,2013-05-12 21:27:00,
2013-05-12 17:28:00,67.1,38.5,29.92,North,354,2.0,7.0,35,0.00,,,0.02,Wunderground v.1.15,2013-05-12 21:28:00,
2013-05-12 17:31:00,67.0,37.7,29.92,East,94,6.0,9.0,34,0.00,,,0.02,Wunderground v.1.15,2013-05-12 21:31:00,
2013-05-12 17:32:00,67.0,38.4,29.92,North,11,5.0,9.0,35,0.00,,,0.02,Wunderground v.1.15,2013-05-12 21:32:00,
2013-05-12 17:33:00,66.9,38.3,29.92,SSW,212,6.0,9.0,35,0.00,,,0.02,Wunderground v.1.15,2013-05-12 21:33:00,
2013-05-12 17:36:00,66.7,38.9,29.92,East,86,2.0,9.0,36,0.00,,,0.02,Wunderground v.1.15,2013-05-12 21:36:00,
2013-05-12 17:37:00,66.7,38.9,29.92,East,82,1.0,9.0,36,0.00,,,0.02,Wunderground v.1.15,2013-05-12 21:37:00,
2013-05-12 17:38:00,66.7,39.6,29.92,NNE,26,4.0,9.0,37,0.00,,,0.02,Wunderground v.1.15,2013-05-12 21:38:00,
2013-05-12 17:41:00,66.6,38.8,29.92,ENE,74,4.0,5.0,36,0.00,,,0.02,Wunderground v.1.15,2013-05-12 21:41:00,
2013-05-12 17:42:00,66.6,37.3,29.92,NNW,342,1.0,7.0,34,0.00,,,0.02,Wunderground v.1.15,2013-05-12 21:42:00,
2013-05-12 17:43:00,66.6,38.1,29.92,West,276,1.0,7.0,35,0.00,,,0.02,Wunderground v.1.15,2013-05-12 21:43:00,
2013-05-12 17:44:00,66.6,38.8,29.92,NE,39,6.0,7.0,36,0.00,,,0.02,Wunderground v.1.15,2013-05-12 21:44:00,
2013-05-12 17:47:00,66.5,39.4,29.92,West,278,1.0,7.0,37,0.00,,,0.02,Wunderground v.1.15,2013-05-12 21:47:00,
2013-05-12 17:48:00,66.5,37.2,29.92,West,266,3.0,7.0,34,0.00,,,0.02,Wunderground v.1.15,2013-05-12 21:48:00,
2013-05-12 17:49:00,66.5,37.2,29.92,West,277,2.0,7.0,34,0.00,,,0.02,Wunderground v.1.15,2013-05-12 21:49:00,
2013-05-12 17:52:00,66.4,37.9,29.92,SSW,205,2.0,5.0,35,0.00,,,0.02,Wunderground v.1.15,2013-05-12 21:52:00,
2013-05-12 17:53:00,66.4,37.9,29.92,ESE,103,2.0,5.0,35,0.00,,,0.02,Wunderground v.1.15,2013-05-12 21:53:00,
2013-05-12 17:54:00,66.4,37.9,29.92,SE,136,1.0,8.0,35,0.00,,,0.02,Wunderground v.1.15,2013-05-12 21:54:00,
2013-05-12 17:57:00,66.3,37.8,29.92,ENE,60,1.0,11.0,35,0.00,,,0.02,Wunderground v.1.15,2013-05-12 21:57:00,
2013-05-12 17:58:00,66.2,37.7,29.92,NE,54,1.0,11.0,35,0.00,,,0.02,Wunderground v.1.15,2013-05-12 21:58:00,
2013-05-12 17:59:00,66.2,37.0,29.92,East,88,2.0,11.0,34,0.00,,,0.02,Wunderground v.1.15,2013-05-12 21:59:00,
2013-05-12 18:02:00,66.2,37.0,29.92,WNW,284,1.0,6.0,34,0.00,,,0.02,Wunderground v.1.15,2013-05-12 22:02:00,
2013-05-12 18:04:00,66.1,38.4,29.92,ESE,107,1.0,8.0,36,0.00,,,0.02,Wunderground v.1.15,2013-05-12 22:04:00,
2013-05-12 18:08:00,66.1,36.9,29.93,SE,146,2.0,8.0,34,0.00,,,0.02,Wunderground v.1.15,2013-05-12 22:08:00,
2013-05-12 18:09:00,66.1,36.9,29.93,West,263,2.0,8.0,34,0.00,,,0.02,Wunderground v.1.15,2013-05-12 22:09:00,
2013-05-12 18:13:00,65.9,36.7,29.93,ENE,72,3.0,7.0,34,0.00,,,0.02,Wunderground v.1.15,2013-05-12 22:13:00,
2013-05-12 18:14:00,65.9,37.5,29.93,North,360,3.0,7.0,35,0.00,,,0.02,Wunderground v.1.15,2013-05-12 22:14:00,
2013-05-12 18:15:00,65.9,36.0,29.93,WNW,299,2.0,7.0,33,0.00,,,0.02,Wunderground v.1.15,2013-05-12 22:15:00,
2013-05-12 18:18:00,65.8,36.6,29.93,East,82,1.0,7.0,34,0.00,,,0.02,Wunderground v.1.15,2013-05-12 22:18:00,
2013-05-12 18:19:00,65.8,36.6,29.93,NE,49,1.0,7.0,34,0.00,,,0.02,Wunderground v.1.15,2013-05-12 22:19:00,
2013-05-12 18:20:00,65.8,36.6,29.93,SSW,197,2.0,2.0,34,0.00,,,0.02,Wunderground v.1.15,2013-05-12 22:20:00,
2013-05-12 18:24:00,65.9,38.2,29.93,NW,317,2.0,2.0,36,0.00,,,0.02,Wunderground v.1.15,2013-05-12 22:24:00,
2013-05-12 18:25:00,65.9,38.2,29.93,WSW,253,0.0,2.0,36,0.00,,,0.02,Wunderground v.1.15,2013-05-12 22:25:00,
2013-05-12 18:26:00,65.9,38.2,29.93,East,87,1.0,2.0,36,0.00,,,0.02,Wunderground v.1.15,2013-05-12 22:26:00,
2013-05-12 18:29:00,65.9,37.5,29.94,West,266,0.0,5.0,35,0.00,,,0.02,Wunderground v.1.15,2013-05-12 22:29:00,
2013-05-12 18:30:00,65.8,38.1,29.94,NNE,24,1.0,1.0,36,0.00,,,0.02,Wunderground v.1.15,2013-05-12 22:30:00,
2013-05-12 18:31:00,65.8,37.4,29.94,East,98,3.0,3.0,35,0.00,,,0.02,Wunderground v.1.15,2013-05-12 22:31:00,
2013-05-12 18:34:00,65.7,35.0,29.94,SW,219,4.0,8.0,32,0.00,,,0.02,Wunderground v.1.15,2013-05-12 22:34:00,
2013-05-12 18:35:00,65.6,34.9,29.94,NE,42,3.0,9.0,32,0.00,,,0.02,Wunderground v.1.15,2013-05-12 22:35:00,
2013-05-12 18:36:00,65.5,36.4,29.94,WSW,258,1.0,9.0,34,0.00,,,0.02,Wunderground v.1.15,2013-05-12 22:36:00,
2013-05-12 18:39:00,65.5,36.4,29.94,NW,315,2.0,9.0,34,0.00,,,0.02,Wunderground v.1.15,2013-05-12 22:39:00,
2013-05-12 18:40:00,65.4,35.5,29.94,ESE,102,3.0,5.0,33,0.00,,,0.02,Wunderground v.1.15,2013-05-12 22:40:00,
2013-05-12 18:41:00,65.4,36.3,29.94,ESE,115,1.0,6.0,34,0.00,,,0.02,Wunderground v.1.15,2013-05-12 22:41:00,
2013-05-12 18:42:00,65.3,36.2,29.94,West,280,5.0,7.0,34,0.00,,,0.02,Wunderground v.1.15,2013-05-12 22:42:00,
2013-05-12 18:44:00,65.2,36.8,29.94,NE,48,0.0,7.0,35,0.00,,,0.02,Wunderground v.1.15,2013-05-12 22:44:00,
2013-05-12 18:45:00,65.2,36.8,29.94,West,281,0.0,7.0,35,0.00,,,0.02,Wunderground v.1.15,2013-05-12 22:45:00,
2013-05-12 18:46:00,65.2,35.4,29.94,SW,218,2.0,7.0,33,0.00,,,0.02,Wunderground v.1.15,2013-05-12 22:46:00,
2013-05-12 18:47:00,65.2,36.1,29.94,ENE,73,2.0,7.0,34,0.00,,,0.02,Wunderground v.1.15,2013-05-12 22:47:00,
2013-05-12 18:50:00,65.2,36.8,29.94,WNW,297,1.0,2.0,35,0.00,,,0.02,Wunderground v.1.15,2013-05-12 22:50:00,
2013-05-12 18:51:00,65.2,36.1,29.94,East,98,2.0,4.0,34,0.00,,,0.02,Wunderground v.1.15,2013-05-12 22:51:00,
2013-05-12 18:52:00,65.2,37.6,29.94,SSW,207,0.0,4.0,36,0.00,,,0.02,Wunderground v.1.15,2013-05-12 22:52:00,
2013-05-12 18:55:00,65.0,37.4,29.94,North,351,2.0,11.0,36,0.00,,,0.02,Wunderground v.1.15,2013-05-12 22:55:00,
2013-05-12 18:56:00,65.0,35.9,29.94,NE,39,0.0,11.0,34,0.00,,,0.02,Wunderground v.1.15,2013-05-12 22:56:00,
2013-05-12 18:57:00,64.9,37.3,29.94,NE,39,0.0,11.0,36,0.00,,,0.02,Wunderground v.1.15,2013-05-12 22:57:00,
2013-05-12 19:00:00,64.8,35.8,29.94,SW,222,2.0,3.0,34,0.00,,,0.02,Wunderground v.1.15,2013-05-12 23:00:00,
2013-05-12 19:01:00,64.8,35.8,29.94,SSW,213,1.0,3.0,34,0.00,,,0.02,Wunderground v.1.15,2013-05-12 23:01:00,
2013-05-12 19:02:00,64.8,36.5,29.94,SSW,195,2.0,4.0,35,0.00,,,0.02,Wunderground v.1.15,2013-05-12 23:02:00,
2013-05-12 19:06:00,64.7,37.8,29.95,NE,45,1.0,5.0,37,0.00,,,0.02,Wunderground v.1.15,2013-05-12 23:06:00,
2013-05-12 19:07:00,64.6,36.3,29.94,NE,41,1.0,5.0,35,0.00,,,0.02,Wunderground v.1.15,2013-05-12 23:07:00,
2013-05-12 19:11:00,64.5,36.2,29.95,East,79,1.0,4.0,35,0.00,,,0.02,Wunderground v.1.15,2013-05-12 23:11:00,
2013-05-12 19:12:00,64.4,35.4,29.95,NE,36,2.0,6.0,34,0.00,,,0.02,Wunderground v.1.15,2013-05-12 23:12:00,
2013-05-12 19:16:00,64.5,36.9,29.95,ESE,123,1.0,6.0,36,0.00,,,0.02,Wunderground v.1.15,2013-05-12 23:16:00,
2013-05-12 19:17:00,64.6,37.0,29.95,ENE,63,0.0,6.0,36,0.00,,,0.02,Wunderground v.1.15,2013-05-12 23:17:00,
2013-05-12 19:18:00,64.6,37.0,29.95,WNW,302,1.0,6.0,36,0.00,,,0.02,Wunderground v.1.15,2013-05-12 23:18:00,
2013-05-12 19:21:00,64.5,36.9,29.95,West,279,2.0,3.0,36,0.00,,,0.02,Wunderground v.1.15,2013-05-12 23:21:00,
2013-05-12 19:22:00,64.5,36.9,29.95,ENE,65,2.0,3.0,36,0.00,,,0.02,Wunderground v.1.15,2013-05-12 23:22:00,
2013-05-12 19:23:00,64.4,36.8,29.95,ENE,58,2.0,4.0,36,0.00,,,0.02,Wunderground v.1.15,2013-05-12 23:23:00,
2013-05-12 19:26:00,64.2,38.7,29.95,ESE,120,1.0,4.0,39,0.00,,,0.02,Wunderground v.1.15,2013-05-12 23:26:00,
2013-05-12 19:27:00,64.2,38.7,29.95,WNW,298,3.0,4.0,39,0.00,,,0.02,Wunderground v.1.15,2013-05-12 23:27:00,
2013-05-12 19:28:00,64.1,39.3,29.95,WNW,283,0.0,4.0,40,0.00,,,0.02,Wunderground v.1.15,2013-05-12 23:28:00,
2013-05-12 19:29:00,64.0,38.5,29.95,SW,231,1.0,4.0,39,0.00,,,0.02,Wunderground v.1.15,2013-05-12 23:29:00,
2013-05-12 19:31:00,63.7,38.3,29.96,ESE,107,2.0,3.0,39,0.00,,,0.02,Wunderground v.1.15,2013-05-12 23:31:00,
2013-05-12 19:32:00,63.7,38.3,29.96,WNW,287,1.0,3.0,39,0.00,,,0.02,Wunderground v.1.15,2013-05-12 23:32:00,
2013-05-12 19:33:00,63.6,38.8,29.96,East,81,1.0,3.0,40,0.00,,,0.02,Wunderground v.1.15,2013-05-12 23:33:00,
2013-05-12 19:34:00,63.5,38.1,29.96,ESE,122,2.0,3.0,39,0.00,,,0.02,Wunderground v.1.15,2013-05-12 23:34:00,
2013-05-12 19:37:00,63.3,38.6,29.96,ESE,121,1.0,5.0,40,0.00,,,0.02,Wunderground v.1.15,2013-05-12 23:37:00,
2013-05-12 19:38:00,63.2,38.5,29.96,WSW,258,1.0,5.0,40,0.00,,,0.02,Wunderground v.1.15,2013-05-12 23:38:00,
2013-05-12 19:39:00,63.2,38.5,29.96,WSW,246,1.0,5.0,40,0.00,,,0.02,Wunderground v.1.15,2013-05-12 23:39:00,
2013-05-12 19:42:00,62.9,38.2,29.96,West,268,0.0,2.0,40,0.00,,,0.02,Wunderground v.1.15,2013-05-12 23:42:00,
2013-05-12 19:43:00,62.8,37.5,29.96,North,9,2.0,4.0,39,0.00,,,0.02,Wunderground v.1.15,2013-05-12 23:43:00,
2013-05-12 19:44:00,62.8,37.5,29.96,SE,132,1.0,4.0,39,0.00,,,0.02,Wunderground v.1.15,2013-05-12 23:44:00,
2013-05-12 19:47:00,62.6,37.9,29.96,East,89,2.0,5.0,40,0.00,,,0.02,Wunderground v.1.15,2013-05-12 23:47:00,
2013-05-12 19:48:00,62.5,37.8,29.96,SSE,158,0.0,5.0,40,0.00,,,0.02,Wunderground v.1.15,2013-05-12 23:48:00,
2013-05-12 19:49:00,62.4,37.7,29.96,North,9,1.0,5.0,40,0.00,,,0.02,Wunderground v.1.15,2013-05-12 23:49:00,
2013-05-12 19:52:00,62.3,38.3,29.96,NW,304,1.0,4.0,41,0.00,,,0.02,Wunderground v.1.15,2013-05-12 23:52:00,
2013-05-12 19:54:00,62.1,38.1,29.96,NNW,342,1.0,5.0,41,0.00,,,0.02,Wunderground v.1.15,2013-05-12 23:54:00,
2013-05-12 19:57:00,61.9,37.9,29.96,East,84,0.0,5.0,41,0.00,,,0.02,Wunderground v.1.15,2013-05-12 23:57:00,
2013-05-12 19:59:00,61.8,37.8,29.96,ENE,77,0.0,5.0,41,0.00,,,0.02,Wunderground v.1.15,2013-05-12 23:59:00,
2013-05-12 20:00:00,61.6,37.7,29.96,NNE,32,1.0,1.0,41,0.00,,,0.02,Wunderground v.1.15,2013-05-13 00:00:00,
2013-05-12 20:02:00,61.6,38.3,29.96,NNW,342,0.0,2.0,42,0.00,,,0.02,Wunderground v.1.15,2013-05-13 00:02:00,
2013-05-12 20:04:00,61.4,38.1,29.96,WNW,300,1.0,2.0,42,0.00,,,0.02,Wunderground v.1.15,2013-05-13 00:04:00,
2013-05-12 20:06:00,61.2,37.9,29.96,East,80,2.0,6.0,42,0.00,,,0.02,Wunderground v.1.15,2013-05-13 00:06:00,
2013-05-12 20:07:00,61.2,38.5,29.96,East,86,0.0,6.0,43,0.00,,,0.02,Wunderground v.1.15,2013-05-13 00:07:00,
2013-05-12 20:10:00,61.1,37.8,29.96,NE,53,0.0,1.0,42,0.00,,,0.02,Wunderground v.1.15,2013-05-13 00:10:00,
2013-05-12 20:11:00,61.0,38.3,29.96,NE,53,0.0,1.0,43,0.00,,,0.02,Wunderground v.1.15,2013-05-13 00:11:00,
2013-05-12 20:12:00,60.9,38.2,29.96,NE,53,0.0,1.0,43,0.00,,,0.02,Wunderground v.1.15,2013-05-13 00:12:00,
2013-05-12 20:13:00,60.8,38.1,29.96,NE,53,0.0,1.0,43,0.00,,,0.02,Wunderground v.1.15,2013-05-13 00:13:00,
2013-05-12 20:15:00,60.6,38.6,29.96,NE,53,0.0,1.0,44,0.00,,,0.02,Wunderground v.1.15,2013-05-13 00:15:00,
2013-05-12 20:16:00,60.5,38.5,29.96,NE,53,0.0,1.0,44,0.00,,,0.02,Wunderground v.1.15,2013-05-13 00:16:00,
2013-05-12 20:17:00,60.4,38.9,29.97,SSE,160,2.0,2.0,45,0.00,,,0.02,Wunderground v.1.15,2013-05-13 00:17:00,
2013-05-12 20:18:00,60.3,38.9,29.97,SSE,161,0.0,2.0,45,0.00,,,0.02,Wunderground v.1.15,2013-05-13 00:18:00,
2013-05-12 20:20:00,60.1,40.9,29.97,SSE,155,0.0,1.0,49,0.00,,,0.02,Wunderground v.1.15,2013-05-13 00:20:00,
2013-05-12 20:22:00,59.9,39.6,29.97,SSE,155,0.0,1.0,47,0.00,,,0.02,Wunderground v.1.15,2013-05-13 00:22:00,
2013-05-12 20:23:00,59.7,38.9,29.97,SSE,156,0.0,1.0,46,0.00,,,0.02,Wunderground v.1.15,2013-05-13 00:23:00,
2013-05-12 20:25:00,59.5,39.2,29.97,SSE,156,0.0,1.0,47,0.00,,,0.02,Wunderground v.1.15,2013-05-13 00:25:00,
2013-05-12 20:27:00,59.3,39.1,29.97,SSE,148,1.0,1.0,47,0.00,,,0.02,Wunderground v.1.15,2013-05-13 00:27:00,
2013-05-12 20:29:00,59.0,39.9,29.98,SSE,149,0.0,1.0,49,0.00,,,0.02,Wunderground v.1.15,2013-05-13 00:29:00,
2013-05-12 20:31:00,58.8,39.1,29.98,SSE,149,0.0,1.0,48,0.00,,,0.02,Wunderground v.1.15,2013-05-13 00:31:00,
2013-05-12 20:32:00,58.7,39.6,29.98,SSE,149,0.0,1.0,49,0.00,,,0.02,Wunderground v.1.15,2013-05-13 00:32:00,
2013-05-12 20:33:00,58.5,38.3,29.98,SSE,149,0.0,1.0,47,0.00,,,0.02,Wunderground v.1.15,2013-05-13 00:33:00,
2013-05-12 20:34:00,58.4,38.2,29.98,SSE,149,0.0,1.0,47,0.00,,,0.02,Wunderground v.1.15,2013-05-13 00:34:00,
2013-05-12 20:36:00,58.3,38.7,29.98,SSE,149,0.0,1.0,48,0.00,,,0.02,Wunderground v.1.15,2013-05-13 00:36:00,
2013-05-12 20:37:00,58.1,38.5,29.98,SSE,149,0.0,1.0,48,0.00,,,0.02,Wunderground v.1.15,2013-05-13 00:37:00,
2013-05-12 20:38:00,58.0,37.9,29.98,SSE,149,0.0,1.0,47,0.00,,,0.02,Wunderground v.1.15,2013-05-13 00:38:00,
2013-05-12 20:39:00,57.9,37.8,29.98,SSE,149,0.0,1.0,47,0.00,,,0.02,Wunderground v.1.15,2013-05-13 00:39:00,
2013-05-12 20:41:00,57.8,38.2,29.98,SSE,149,0.0,0.0,48,0.00,,,0.02,Wunderground v.1.15,2013-05-13 00:41:00,
2013-05-12 20:42:00,57.7,38.7,29.98,SSE,149,0.0,0.0,49,0.00,,,0.02,Wunderground v.1.15,2013-05-13 00:42:00,
2013-05-12 20:43:00,57.7,38.7,29.98,SSE,149,0.0,0.0,49,0.00,,,0.02,Wunderground v.1.15,2013-05-13 00:43:00,
2013-05-12 20:45:00,57.5,39.5,29.98,SSE,149,0.0,0.0,51,0.00,,,0.02,Wunderground v.1.15,2013-05-13 00:45:00,
2013-05-12 20:46:00,57.4,38.4,29.98,SSE,149,0.0,0.0,49,0.00,,,0.02,Wunderground v.1.15,2013-05-13 00:46:00,
2013-05-12 20:48:00,57.3,38.8,29.98,ESE,107,0.0,0.0,50,0.00,,,0.02,Wunderground v.1.15,2013-05-13 00:48:00,
2013-05-12 20:49:00,57.2,39.2,29.98,ESE,107,0.0,0.0,51,0.00,,,0.02,Wunderground v.1.15,2013-05-13 00:49:00,
2013-05-12 20:50:00,57.1,39.1,29.98,ESE,107,0.0,0.0,51,0.00,,,0.02,Wunderground v.1.15,2013-05-13 00:50:00,
2013-05-12 20:51:00,57.0,38.5,29.98,ESE,107,0.0,0.0,50,0.00,,,0.02,Wunderground v.1.15,2013-05-13 00:51:00,
2013-05-12 20:53:00,57.0,39.5,29.98,ESE,108,0.0,0.0,52,0.00,,,0.02,Wunderground v.1.15,2013-05-13 00:53:00,
2013-05-12 20:54:00,56.9,38.4,29.98,ESE,107,0.0,0.0,50,0.00,,,0.02,Wunderground v.1.15,2013-05-13 00:54:00,
2013-05-12 20:55:00,56.9,39.4,29.98,WNW,283,0.0,2.0,52,0.00,,,0.02,Wunderground v.1.15,2013-05-13 00:55:00,
2013-05-12 20:56:00,56.8,38.9,29.98,WNW,284,0.0,2.0,51,0.00,,,0.02,Wunderground v.1.15,2013-05-13 00:56:00,
2013-05-12 20:58:00,56.8,39.4,29.98,WNW,284,0.0,2.0,52,0.00,,,0.02,Wunderground v.1.15,2013-05-13 00:58:00,
2013-05-12 21:00:00,56.7,38.8,29.98,SSW,207,0.0,0.0,51,0.00,,,0.02,Wunderground v.1.15,2013-05-13 01:00:00,
2013-05-12 21:01:00,56.7,39.3,29.98,NE,50,1.0,1.0,52,0.00,,,0.02,Wunderground v.1.15,2013-05-13 01:01:00,
2013-05-12 21:03:00,56.6,38.2,29.98,SW,225,1.0,1.0,50,0.00,,,0.02,Wunderground v.1.15,2013-05-13 01:03:00,
2013-05-12 21:05:00,56.7,38.8,29.98,SW,225,0.0,1.0,51,0.00,,,0.02,Wunderground v.1.15,2013-05-13 01:05:00,
2013-05-12 21:06:00,56.8,38.3,29.98,SW,225,0.0,1.0,50,0.00,,,0.02,Wunderground v.1.15,2013-05-13 01:06:00,
2013-05-12 21:08:00,56.8,38.3,29.98,SW,225,0.0,1.0,50,0.00,,,0.02,Wunderground v.1.15,2013-05-13 01:08:00,
2013-05-12 21:09:00,56.8,38.3,29.98,SW,225,0.0,1.0,50,0.00,,,0.02,Wunderground v.1.15,2013-05-13 01:09:00,
2013-05-12 21:10:00,56.8,38.9,29.99,SW,225,0.0,0.0,51,0.00,,,0.02,Wunderground v.1.15,2013-05-13 01:10:00,
2013-05-12 21:11:00,56.7,38.8,29.99,SW,225,0.0,1.0,51,0.00,,,0.02,Wunderground v.1.15,2013-05-13 01:11:00,
2013-05-12 21:13:00,56.7,38.8,29.99,SW,225,0.0,1.0,51,0.00,,,0.02,Wunderground v.1.15,2013-05-13 01:13:00,
2013-05-12 21:14:00,56.6,38.7,29.99,SW,225,0.0,1.0,51,0.00,,,0.02,Wunderground v.1.15,2013-05-13 01:14:00,
2013-05-12 21:15:00,56.6,39.7,29.99,SW,225,0.0,1.0,53,0.00,,,0.02,Wunderground v.1.15,2013-05-13 01:15:00,
2013-05-12 21:16:00,56.6,39.7,29.99,SW,225,0.0,1.0,53,0.00,,,0.02,Wunderground v.1.15,2013-05-13 01:16:00,
2013-05-12 21:17:00,56.5,38.6,29.99,SW,225,0.0,1.0,51,0.00,,,0.02,Wunderground v.1.15,2013-05-13 01:17:00,
2013-05-12 21:18:00,56.5,38.1,29.99,SW,225,0.0,1.0,50,0.00,,,0.02,Wunderground v.1.15,2013-05-13 01:18:00,
2013-05-12 21:19:00,56.5,39.1,29.99,SW,225,0.0,1.0,52,0.00,,,0.02,Wunderground v.1.15,2013-05-13 01:19:00,
2013-05-12 21:21:00,56.5,38.1,29.99,SW,225,0.0,0.0,50,0.00,,,0.02,Wunderground v.1.15,2013-05-13 01:21:00,
2013-05-12 21:22:00,56.4,38.0,29.99,SW,225,0.0,0.0,50,0.00,,,0.02,Wunderground v.1.15,2013-05-13 01:22:00,
2013-05-12 21:24:00,56.4,38.5,29.99,SW,225,0.0,0.0,51,0.00,,,0.02,Wunderground v.1.15,2013-05-13 01:24:00,
2013-05-12 21:26:00,56.4,38.0,29.99,SW,225,0.0,0.0,50,0.00,,,0.02,Wunderground v.1.15,2013-05-13 01:26:00,
2013-05-12 21:27:00,56.3,37.9,29.99,SW,225,0.0,0.0,50,0.00,,,0.02,Wunderground v.1.15,2013-05-13 01:27:00,
2013-05-12 21:29:00,56.2,38.8,29.99,SW,225,0.0,0.0,52,0.00,,,0.02,Wunderground v.1.15,2013-05-13 01:29:00,
2013-05-12 21:31:00,56.2,38.3,29.99,SW,225,0.0,0.0,51,0.00,,,0.02,Wunderground v.1.15,2013-05-13 01:31:00,
2013-05-12 21:32:00,56.1,38.2,30.00,SW,225,0.0,0.0,51,0.00,,,0.02,Wunderground v.1.15,2013-05-13 01:32:00,
2013-05-12 21:35:00,56.0,39.1,30.00,SW,225,0.0,0.0,53,0.00,,,0.02,Wunderground v.1.15,2013-05-13 01:35:00,
2013-05-12 21:36:00,56.0,38.1,30.00,SW,225,0.0,0.0,51,0.00,,,0.02,Wunderground v.1.15,2013-05-13 01:36:00,
2013-05-12 21:38:00,55.9,38.0,30.00,SW,225,0.0,0.0,51,0.00,,,0.02,Wunderground v.1.15,2013-05-13 01:38:00,
2013-05-12 21:40:00,55.7,39.8,30.00,SW,224,0.0,0.0,55,0.00,,,0.02,Wunderground v.1.15,2013-05-13 01:40:00,
2013-05-12 21:41:00,55.6,39.7,30.00,SW,225,0.0,0.0,55,0.00,,,0.02,Wunderground v.1.15,2013-05-13 01:41:00,
2013-05-12 21:43:00,55.3,38.4,30.00,SW,225,0.0,0.0,53,0.00,,,0.02,Wunderground v.1.15,2013-05-13 01:43:00,
2013-05-12 21:45:00,55.2,38.4,30.00,SW,225,0.0,0.0,53,0.00,,,0.02,Wunderground v.1.15,2013-05-13 01:45:00,
2013-05-12 21:46:00,55.1,39.2,30.00,SW,225,0.0,0.0,55,0.00,,,0.02,Wunderground v.1.15,2013-05-13 01:46:00,
2013-05-12 21:48:00,55.0,39.1,30.00,SW,225,0.0,0.0,55,0.00,,,0.02,Wunderground v.1.15,2013-05-13 01:48:00,
2013-05-12 21:50:00,54.9,40.4,30.00,SW,226,0.0,0.0,58,0.00,,,0.02,Wunderground v.1.15,2013-05-13 01:50:00,
2013-05-12 21:51:00,54.7,38.8,30.00,SW,225,0.0,0.0,55,0.00,,,0.02,Wunderground v.1.15,2013-05-13 01:51:00,
2013-05-12 21:54:00,54.5,39.1,30.00,West,277,1.0,1.0,56,0.00,,,0.02,Wunderground v.1.15,2013-05-13 01:54:00,
2013-05-12 21:55:00,54.5,39.1,30.00,West,276,0.0,1.0,56,0.00,,,0.02,Wunderground v.1.15,2013-05-13 01:55:00,
2013-05-12 21:56:00,54.5,38.7,30.00,West,276,0.0,1.0,55,0.00,,,0.02,Wunderground v.1.15,2013-05-13 01:56:00,
2013-05-12 21:57:00,54.4,38.6,30.00,WSW,243,0.0,1.0,55,0.00,,,0.02,Wunderground v.1.15,2013-05-13 01:57:00,
2013-05-12 21:59:00,54.5,38.7,30.01,WSW,243,0.0,1.0,55,0.00,,,0.02,Wunderground v.1.15,2013-05-13 01:59:00,
2013-05-12 22:00:00,54.5,38.7,30.01,WSW,243,0.0,0.0,55,0.00,,,0.02,Wunderground v.1.15,2013-05-13 02:00:00,
2013-05-12 22:01:00,54.5,38.7,30.01,WSW,243,0.0,0.0,55,0.00,,,0.02,Wunderground v.1.15,2013-05-13 02:01:00,
2013-05-12 22:02:00,54.5,38.7,30.01,WSW,243,0.0,0.0,55,0.00,,,0.02,Wunderground v.1.15,2013-05-13 02:02:00,
2013-05-12 22:04:00,54.5,38.7,30.01,WSW,243,0.0,1.0,55,0.00,,,0.02,Wunderground v.1.15,2013-05-13 02:04:00,
2013-05-12 22:06:00,54.5,38.2,30.01,WSW,243,0.0,1.0,54,0.00,,,0.02,Wunderground v.1.15,2013-05-13 02:06:00,
2013-05-12 22:07:00,54.4,38.1,30.01,WSW,243,0.0,1.0,54,0.00,,,0.02,Wunderground v.1.15,2013-05-13 02:07:00,
2013-05-12 22:10:00,54.4,38.6,30.01,WSW,243,0.0,0.0,55,0.00,,,0.02,Wunderground v.1.15,2013-05-13 02:10:00,
2013-05-12 22:11:00,54.3,38.0,30.01,WSW,243,0.0,0.0,54,0.00,,,0.02,Wunderground v.1.15,2013-05-13 02:11:00,
2013-05-12 22:12:00,54.3,38.5,30.01,WSW,243,0.0,0.0,55,0.00,,,0.02,Wunderground v.1.15,2013-05-13 02:12:00,
2013-05-12 22:15:00,54.1,37.8,30.01,WSW,243,0.0,1.0,54,0.00,,,0.02,Wunderground v.1.15,2013-05-13 02:15:00,
2013-05-12 22:16:00,54.1,37.8,30.01,WSW,243,0.0,1.0,54,0.00,,,0.02,Wunderground v.1.15,2013-05-13 02:16:00,
2013-05-12 22:17:00,54.0,38.6,30.01,WSW,243,0.0,1.0,56,0.00,,,0.02,Wunderground v.1.15,2013-05-13 02:17:00,
2013-05-12 22:20:00,53.9,38.6,30.01,WSW,243,0.0,0.0,56,0.00,,,0.02,Wunderground v.1.15,2013-05-13 02:20:00,
2013-05-12 22:21:00,53.9,38.6,30.01,WSW,243,0.0,0.0,56,0.00,,,0.02,Wunderground v.1.15,2013-05-13 02:21:00,
2013-05-12 22:22:00,53.8,38.5,30.01,WSW,243,0.0,0.0,56,0.00,,,0.02,Wunderground v.1.15,2013-05-13 02:22:00,
2013-05-12 22:23:00,53.8,38.0,30.01,WSW,243,1.0,1.0,55,0.00,,,0.02,Wunderground v.1.15,2013-05-13 02:23:00,
2013-05-12 22:25:00,53.5,38.6,30.02,WSW,243,0.0,1.0,57,0.00,,,0.02,Wunderground v.1.15,2013-05-13 02:25:00,
2013-05-12 22:26:00,53.5,38.2,30.02,WSW,243,0.0,1.0,56,0.00,,,0.02,Wunderground v.1.15,2013-05-13 02:26:00,
2013-05-12 22:27:00,53.4,38.1,30.02,WSW,243,0.0,1.0,56,0.00,,,0.02,Wunderground v.1.15,2013-05-13 02:27:00,
2013-05-12 22:28:00,53.4,38.1,30.02,WSW,243,0.0,1.0,56,0.00,,,0.02,Wunderground v.1.15,2013-05-13 02:28:00,
2013-05-12 22:30:00,53.3,38.0,30.02,WSW,243,0.0,0.0,56,0.00,,,0.02,Wunderground v.1.15,2013-05-13 02:30:00,
2013-05-12 22:31:00,53.3,38.0,30.02,WSW,243,0.0,0.0,56,0.00,,,0.02,Wunderground v.1.15,2013-05-13 02:31:00,
2013-05-12 22:32:00,53.3,38.0,30.02,WSW,243,0.0,0.0,56,0.00,,,0.02,Wunderground v.1.15,2013-05-13 02:32:00,
2013-05-12 22:33:00,53.3,37.5,30.02,WSW,243,0.0,0.0,55,0.00,,,0.02,Wunderground v.1.15,2013-05-13 02:33:00,
2013-05-12 22:36:00,53.3,38.0,30.02,WSW,243,0.0,0.0,56,0.00,,,0.02,Wunderground v.1.15,2013-05-13 02:36:00,
2013-05-12 22:37:00,53.2,38.4,30.02,WSW,243,0.0,0.0,57,0.00,,,0.02,Wunderground v.1.15,2013-05-13 02:37:00,
2013-05-12 22:38:00,53.2,38.4,30.02,WSW,243,0.0,0.0,57,0.00,,,0.02,Wunderground v.1.15,2013-05-13 02:38:00,
2013-05-12 22:41:00,53.1,37.8,30.02,WSW,243,0.0,0.0,56,0.00,,,0.02,Wunderground v.1.15,2013-05-13 02:41:00,
2013-05-12 22:42:00,53.0,38.6,30.02,WSW,243,0.0,0.0,58,0.00,,,0.02,Wunderground v.1.15,2013-05-13 02:42:00,
2013-05-12 22:43:00,52.9,38.5,30.02,WSW,243,0.0,0.0,58,0.00,,,0.02,Wunderground v.1.15,2013-05-13 02:43:00,
2013-05-12 22:46:00,52.7,38.3,30.02,WSW,243,0.0,0.0,58,0.00,,,0.02,Wunderground v.1.15,2013-05-13 02:46:00,
2013-05-12 22:47:00,52.7,38.3,30.02,WSW,243,0.0,0.0,58,0.00,,,0.02,Wunderground v.1.15,2013-05-13 02:47:00,
2013-05-12 22:49:00,52.6,38.2,30.02,WSW,243,0.0,0.0,58,0.00,,,0.02,Wunderground v.1.15,2013-05-13 02:49:00,
2013-05-12 22:52:00,52.4,38.5,30.02,WSW,243,0.0,0.0,59,0.00,,,0.02,Wunderground v.1.15,2013-05-13 02:52:00,
2013-05-12 22:53:00,52.3,38.4,30.02,WSW,243,0.0,0.0,59,0.00,,,0.02,Wunderground v.1.15,2013-05-13 02:53:00,
2013-05-12 22:54:00,52.2,38.7,30.02,WSW,243,0.0,0.0,60,0.00,,,0.02,Wunderground v.1.15,2013-05-13 02:54:00,
2013-05-12 22:57:00,51.8,38.3,30.02,WSW,243,0.0,0.0,60,0.00,,,0.02,Wunderground v.1.15,2013-05-13 02:57:00,
2013-05-12 22:58:00,51.8,38.3,30.02,WSW,243,0.0,0.0,60,0.00,,,0.02,Wunderground v.1.15,2013-05-13 02:58:00,
2013-05-12 22:59:00,51.7,38.7,30.02,WSW,243,0.0,0.0,61,0.00,,,0.02,Wunderground v.1.15,2013-05-13 02:59:00,
2013-05-12 23:03:00,51.4,39.2,30.02,WSW,243,0.0,0.0,63,0.00,,,0.02,Wunderground v.1.15,2013-05-13 03:03:00,
2013-05-12 23:04:00,51.3,38.3,30.02,WSW,243,0.0,0.0,61,0.00,,,0.02,Wunderground v.1.15,2013-05-13 03:04:00,
2013-05-12 23:08:00,51.0,39.2,30.02,WSW,243,0.0,0.0,64,0.00,,,0.02,Wunderground v.1.15,2013-05-13 03:08:00,
2013-05-12 23:09:00,50.9,39.5,30.02,WSW,243,0.0,0.0,65,0.00,,,0.02,Wunderground v.1.15,2013-05-13 03:09:00,
2013-05-12 23:13:00,50.6,40.0,30.01,WSW,243,0.0,0.0,67,0.00,,,0.02,Wunderground v.1.15,2013-05-13 03:13:00,
2013-05-12 23:14:00,50.5,39.9,30.02,WSW,243,0.0,0.0,67,0.00,,,0.02,Wunderground v.1.15,2013-05-13 03:14:00,
2013-05-12 23:18:00,50.1,39.6,30.01,WSW,243,0.0,0.0,67,0.00,,,0.02,Wunderground v.1.15,2013-05-13 03:18:00,
2013-05-12 23:19:00,50.0,39.5,30.02,WSW,243,0.0,0.0,67,0.00,,,0.02,Wunderground v.1.15,2013-05-13 03:19:00,
2013-05-12 23:20:00,50.0,39.5,30.02,WSW,243,0.0,0.0,67,0.00,,,0.02,Wunderground v.1.15,2013-05-13 03:20:00,
2013-05-12 23:23:00,49.6,38.7,30.02,WSW,243,0.0,0.0,66,0.00,,,0.02,Wunderground v.1.15,2013-05-13 03:23:00,
2013-05-12 23:24:00,49.6,39.1,30.02,WSW,243,0.0,0.0,67,0.00,,,0.02,Wunderground v.1.15,2013-05-13 03:24:00,
2013-05-12 23:25:00,49.5,39.0,30.02,WSW,243,0.0,0.0,67,0.00,,,0.02,Wunderground v.1.15,2013-05-13 03:25:00,
2013-05-12 23:28:00,49.3,39.2,30.02,WSW,243,0.0,0.0,68,0.00,,,0.02,Wunderground v.1.15,2013-05-13 03:28:00,
2013-05-12 23:29:00,49.3,39.2,30.02,WSW,243,0.0,0.0,68,0.00,,,0.02,Wunderground v.1.15,2013-05-13 03:29:00,
2013-05-12 23:30:00,49.3,39.6,30.02,WSW,243,0.0,0.0,69,0.00,,,0.02,Wunderground v.1.15,2013-05-13 03:30:00,
2013-05-12 23:34:00,49.1,39.4,30.02,WSW,243,0.0,0.0,69,0.00,,,0.02,Wunderground v.1.15,2013-05-13 03:34:00,
2013-05-12 23:35:00,49.1,39.7,30.02,WSW,243,0.0,0.0,70,0.00,,,0.02,Wunderground v.1.15,2013-05-13 03:35:00,
2013-05-12 23:36:00,49.0,39.6,30.02,WSW,243,0.0,0.0,70,0.00,,,0.02,Wunderground v.1.15,2013-05-13 03:36:00,
2013-05-12 23:39:00,48.8,39.1,30.03,WSW,243,0.0,0.0,69,0.00,,,0.02,Wunderground v.1.15,2013-05-13 03:39:00,
2013-05-12 23:40:00,48.8,39.1,30.03,WSW,243,0.0,0.0,69,0.00,,,0.02,Wunderground v.1.15,2013-05-13 03:40:00,
2013-05-12 23:41:00,48.7,39.0,30.03,WSW,243,0.0,0.0,69,0.00,,,0.02,Wunderground v.1.15,2013-05-13 03:41:00,
2013-05-12 23:44:00,48.6,38.9,30.03,WSW,243,0.0,0.0,69,0.00,,,0.02,Wunderground v.1.15,2013-05-13 03:44:00,
2013-05-12 23:45:00,48.6,38.9,30.03,WSW,243,0.0,0.0,69,0.00,,,0.02,Wunderground v.1.15,2013-05-13 03:45:00,
2013-05-12 23:46:00,48.5,38.8,30.03,WSW,243,0.0,0.0,69,0.00,,,0.02,Wunderground v.1.15,2013-05-13 03:46:00,
2013-05-12 23:49:00,48.2,38.9,30.03,WSW,243,0.0,0.0,70,0.00,,,0.02,Wunderground v.1.15,2013-05-13 03:49:00,
2013-05-12 23:50:00,48.2,39.2,30.03,WSW,243,0.0,0.0,71,0.00,,,0.02,Wunderground v.1.15,2013-05-13 03:50:00,
2013-05-12 23:51:00,48.2,39.6,30.03,WSW,243,0.0,0.0,72,0.00,,,0.02,Wunderground v.1.15,2013-05-13 03:51:00,
2013-05-12 23:54:00,48.1,39.5,30.03,WSW,243,0.0,0.0,72,0.00,,,0.02,Wunderground v.1.15,2013-05-13 03:54:00,
2013-05-12 23:55:00,48.0,39.4,30.03,WSW,243,0.0,0.0,72,0.00,,,0.02,Wunderground v.1.15,2013-05-13 03:55:00,
2013-05-12 23:56:00,48.0,39.4,30.03,WSW,243,0.0,0.0,72,0.00,,,0.02,Wunderground v.1.15,2013-05-13 03:56:00,
2013-05-12 23:57:00,48.1,39.5,30.03,WSW,243,0.0,0.0,72,0.00,,,0.02,Wunderground v.1.15,2013-05-13 03:57:00,